GFSFLT1_850_thetae_003.txt.gz
Theta_e
326 327 327 326 323 326 330 328 327 326 325 324 322 320 320 320 316 314 313 312 311 311 311 310 308 309 309 308 308 307 306 305
324 325 325 325 325 327 328 327 326 325 323 322 320 321 316 313 312 311 311 311 311 311 308 306 307 307 307 305 304 304 303 302
324 326 327 328 328 328 326 325 323 320 319 318 319 318 316 313 311 311 310 309 307 307 306 306 307 306 305 302 300 299 298 296
321 321 322 324 323 322 317 317 318 317 318 316 312 311 311 311 311 309 309 307 306 306 306 306 304 302 299 297 296 295 294 294
318 318 317 316 315 314 314 313 313 312 312 312 312 312 311 310 310 309 307 306 306 305 303 301 301 299 296 295 295 293 295 297
316 316 316 316 315 315 315 314 314 314 313 313 312 311 311 309 307 306 305 303 302 302 303 304 300 296 296 296 297 293 296 297
317 316 316 315 315 314 314 314 314 313 313 313 312 311 308 306 306 304 303 304 303 304 302 300 299 298 297 298 295 294 295 295
317 316 316 315 314 314 314 314 313 313 313 312 312 310 308 306 304 304 303 300 301 301 300 299 299 298 295 293 293 292 291 290
317 316 315 314 314 313 313 313 312 311 310 308 307 305 303 303 304 303 302 301 301 300 300 299 296 294 292 291 290 290 288 287
315 314 313 312 312 312 311 309 308 307 304 303 302 301 302 304 304 303 301 301 300 300 297 296 297 292 291 289 289 288 288 288
312 311 310 310 310 308 306 305 304 304 303 301 299 299 302 302 301 301 300 300 299 300 299 296 293 291 290 288 289 288 288 288
309 309 309 307 306 304 303 303 301 300 298 297 297 296 295 294 293 293 298 299 298 297 295 292 293 290 289 288 288 288 288 288
309 307 306 304 302 301 301 301 300 299 298 296 295 294 292 291 290 293 297 296 296 294 294 293 289 289 288 288 288 288 288 288
306 304 303 302 300 301 300 300 299 298 296 295 294 293 291 290 289 292 297 296 294 295 292 289 288 288 287 288 288 288 288 287
303 302 302 301 301 300 299 298 297 296 295 294 294 292 291 291 290 291 294 294 294 290 289 288 288 288 288 288 288 288 287 287
302 302 301 300 299 299 298 297 296 295 295 295 293 293 292 291 290 290 293 293 293 289 288 288 289 288 288 288 288 287 287 285
301 301 301 299 298 297 296 296 296 295 295 294 293 293 291 291 290 291 293 293 291 287 290 289 288 288 288 288 287 286 285 284
301 300 299 298 297 296 296 296 295 295 294 294 293 292 292 291 290 292 293 292 289 290 290 288 288 288 288 287 285 284 283 282
300 299 298 297 296 295 295 295 294 294 294 293 292 292 292 291 291 292 292 292 291 291 289 288 288 288 286 285 284 281 280 280

GFSFLT1_850_thetae_006.txt.gz
Theta_e
326 327 326 326 324 322 328 328 327 326 325 324 320 317 317 318 318 315 313 312 311 311 310 307 307 306 306 307 307 306 305 304
325 325 325 325 325 326 326 326 326 325 322 318 317 318 319 319 312 312 311 309 308 307 307 307 307 306 306 305 304 302 301 300
326 327 328 329 328 325 322 321 321 319 319 318 318 315 311 311 311 311 309 309 308 307 307 306 305 303 302 301 300 297 295 294
323 324 324 322 319 317 315 313 313 313 313 312 313 312 311 311 310 309 309 308 307 306 305 303 302 303 303 302 298 296 296 295
319 319 316 315 314 313 313 313 313 313 313 313 313 313 312 311 310 309 307 306 305 304 303 303 303 302 300 298 297 296 296 293
316 315 314 314 314 314 314 314 314 314 313 313 312 312 311 310 308 307 305 304 303 300 299 301 300 300 299 298 298 297 293 292
315 315 315 314 314 314 314 314 314 313 313 312 311 309 308 306 304 304 304 302 301 300 300 301 300 299 296 294 293 292 291 290
315 315 316 314 314 314 314 313 313 312 311 310 308 306 303 302 303 303 303 302 301 300 300 301 299 296 294 293 292 289 289 288
315 314 315 314 314 313 312 311 310 309 308 306 304 303 301 301 302 301 300 299 299 300 299 300 299 297 298 292 290 288 288 288
314 313 313 313 312 311 309 308 306 305 303 303 300 298 297 296 295 294 293 293 293 298 299 299 297 297 292 292 289 288 288 288
312 311 311 311 311 309 307 304 303 301 300 299 298 296 295 294 293 292 291 290 296 299 297 297 295 294 292 289 288 287 288 288
310 310 310 310 309 308 307 302 301 300 299 297 295 294 293 292 291 290 289 291 297 297 296 296 293 292 289 288 287 288 288 288
309 309 308 306 304 302 302 301 300 298 297 295 295 294 293 291 290 290 289 291 296 296 294 294 293 289 288 288 287 288 287 287
308 307 304 302 302 301 300 300 299 297 296 295 294 294 293 292 291 290 290 291 293 293 294 293 289 288 288 288 287 287 288 287
306 303 302 301 301 303 299 299 297 296 295 295 295 294 293 292 290 290 290 292 293 292 292 289 288 288 288 288 288 288 287 287
304 303 302 303 302 299 298 298 296 295 295 295 294 293 293 291 291 290 290 291 292 292 290 289 288 289 288 288 288 288 287 286
303 302 302 300 299 298 297 296 295 295 295 294 294 293 291 291 291 290 291 292 292 292 289 289 290 289 288 288 287 287 285 284
302 301 300 299 299 297 296 295 294 295 294 294 293 292 291 290 290 290 291 292 291 290 290 290 290 288 288 287 286 285 283 281
301 300 300 299 297 296 295 294 294 294 293 293 292 291 292 290 290 290 291 291 291 291 291 288 288 288 287 286 286 283 282 281

GFSFLT1_850_thetae_009.txt.gz
Theta_e
325 324 324 325 324 322 323 326 326 325 325 324 324 321 315 319 319 318 313 312 311 309 308 307 308 307 306 305 304 303 302 301
325 326 326 325 325 325 327 327 326 324 322 321 319 316 319 317 312 311 311 310 309 309 307 307 306 305 305 303 303 303 302 300
325 326 327 327 325 322 321 320 319 318 319 318 318 316 311 311 311 310 310 309 308 307 306 305 303 303 303 302 301 299 298 297
323 322 318 317 316 315 313 313 315 313 312 312 312 312 311 311 311 310 309 308 306 305 303 302 300 299 300 299 298 298 298 297
318 315 313 312 312 312 312 312 313 313 313 312 313 312 312 311 310 308 306 305 304 303 302 300 298 300 300 299 298 297 296 295
314 314 313 313 313 313 313 313 313 313 312 312 312 311 310 308 305 304 304 304 303 302 300 297 296 299 299 299 297 293 292 292
314 313 313 314 314 313 313 313 313 313 312 311 310 309 306 305 303 303 303 302 300 297 295 295 298 299 299 297 296 297 295 292
314 314 313 314 314 313 313 313 313 311 310 307 306 305 304 301 300 299 298 296 295 294 294 297 299 299 297 296 295 293 289 288
314 314 314 313 313 313 313 312 309 307 305 302 300 300 298 296 295 294 293 292 291 290 291 297 299 298 296 297 292 290 289 289
314 313 312 312 312 311 309 308 305 302 301 300 298 297 295 294 293 292 291 290 290 290 293 299 298 297 296 293 289 289 288 288
313 311 310 309 308 307 307 305 302 301 300 298 297 295 294 293 293 291 290 290 290 292 297 298 297 294 292 289 289 287 287 288
310 308 308 307 306 305 305 303 303 300 298 297 296 295 294 294 293 291 290 290 290 294 296 296 294 293 292 289 288 287 287 287
308 308 307 305 304 304 304 304 301 298 298 297 296 295 295 294 292 290 290 290 290 293 294 293 292 293 292 288 288 288 288 288
307 307 306 304 302 304 304 302 299 298 297 296 295 295 294 293 291 290 290 290 290 292 292 292 292 290 288 288 288 288 288 288
308 306 305 303 303 304 302 299 298 297 296 295 294 294 293 293 291 290 290 290 290 291 291 292 291 289 288 289 288 288 288 287
307 306 304 302 305 302 299 298 297 296 295 295 294 293 293 292 290 290 290 290 291 291 291 290 289 289 289 289 288 288 287 286
308 305 303 304 301 299 298 297 296 295 295 295 294 293 293 291 290 290 290 290 291 291 291 289 290 290 289 288 288 287 286 285
307 305 303 300 300 299 297 296 295 295 295 294 293 293 291 291 291 290 290 290 291 291 291 291 291 290 288 288 287 286 285 283
307 304 301 300 299 298 296 295 295 295 294 293 292 291 291 291 291 290 289 290 290 291 291 290 288 288 288 287 286 284 282 282

GFSFLT1_850_thetae_012.txt.gz
Theta_e
325 325 324 324 329 330 326 326 327 326 325 325 323 322 318 318 319 316 312 311 310 308 309 308 307 307 307 306 306 305 305 304
326 325 325 325 325 324 324 327 327 325 324 321 320 318 318 318 313 312 311 310 308 308 307 307 306 306 306 305 304 304 303 303
327 328 329 330 329 328 326 325 323 323 321 319 319 319 317 311 311 311 310 309 308 307 307 306 305 305 304 304 302 301 300 301
328 328 328 326 325 324 323 321 320 319 317 315 313 312 311 311 310 309 308 307 306 305 305 304 303 303 301 302 301 301 300 300
324 322 322 320 319 319 318 317 314 312 312 313 313 314 314 311 308 307 306 305 304 304 304 301 300 300 300 301 299 299 298 298
318 318 317 315 313 313 313 312 312 312 312 312 312 311 309 307 307 306 306 306 305 304 302 301 300 300 300 300 299 297 297 297
315 314 314 313 313 312 312 312 312 312 312 311 309 306 305 305 304 303 301 299 298 297 297 300 300 299 300 298 297 297 296 295
315 314 314 313 313 312 311 311 311 311 308 305 302 301 299 299 297 296 296 295 295 295 295 297 299 299 298 298 296 296 294 293
316 315 314 313 311 310 310 310 307 305 302 301 300 298 297 296 295 294 295 294 294 294 296 297 298 298 297 296 296 295 293 292
316 314 312 311 310 310 308 306 304 302 301 299 298 297 296 294 294 295 294 294 294 295 297 298 298 297 296 297 295 294 292 291
315 313 311 310 310 307 307 303 303 306 302 298 298 297 296 295 294 294 292 292 293 294 296 297 298 296 296 295 293 292 291 290
314 312 311 309 306 306 305 305 305 301 298 298 297 297 296 295 295 294 293 291 293 293 295 296 296 296 294 293 293 291 290 290
313 310 309 307 305 303 302 303 301 299 298 297 297 297 296 295 295 294 293 293 293 293 293 294 294 294 293 293 293 290 290 290
311 309 308 306 304 302 303 302 303 299 297 297 297 296 296 295 295 294 293 293 293 294 294 293 293 293 293 292 290 290 290 290
310 308 306 304 302 303 303 306 299 298 297 296 296 296 296 295 295 294 293 292 293 293 293 293 293 292 292 290 290 290 289 289
310 308 306 304 302 303 304 301 299 298 297 296 296 295 295 295 294 293 292 292 293 293 292 291 291 290 289 289 289 289 289 288
310 309 307 304 303 304 301 300 298 297 296 296 295 295 294 294 294 293 292 292 293 293 293 292 291 290 291 290 289 288 287 286
310 309 307 304 302 301 301 299 297 296 295 295 294 293 293 293 293 293 292 292 292 292 293 292 291 290 288 288 288 287 285 284
311 309 306 304 301 300 300 298 296 295 295 295 292 292 292 292 292 293 292 292 292 291 291 291 290 288 288 288 287 286 284 283

GFSFLT1_850_thetae_015.txt.gz
Theta_e
330 330 329 328 330 333 334 334 332 328 324 324 324 324 322 320 318 316 314 313 311 312 312 310 310 310 310 310 309 308 306 305
330 331 332 331 332 333 331 329 332 328 327 326 323 320 320 318 316 312 311 311 310 309 310 310 310 309 308 308 307 306 303 302
331 332 332 333 333 333 329 329 330 328 326 322 320 320 319 315 313 311 311 310 310 309 309 309 308 307 306 305 304 304 302 302
331 332 333 332 332 332 330 329 327 324 321 321 321 319 314 314 313 312 310 309 309 308 308 307 306 305 303 302 302 303 301 301
331 331 331 330 328 327 325 323 321 321 319 317 317 317 317 314 312 311 310 309 308 307 305 304 304 303 302 302 301 301 300 300
327 326 324 323 322 321 320 318 316 316 316 316 316 314 312 311 310 309 307 305 302 300 299 299 300 301 302 302 301 300 299 299
322 321 319 319 318 318 316 315 315 315 314 314 312 310 308 307 304 301 300 298 298 297 297 298 298 300 301 301 300 299 299 298
319 318 317 317 317 317 316 314 313 313 311 309 307 304 301 300 299 298 298 297 297 297 297 298 299 299 300 299 299 298 298 296
318 317 317 317 317 315 314 313 312 309 306 303 303 304 304 299 298 298 297 297 296 296 296 298 299 299 299 298 298 298 297 295
318 318 318 317 316 314 314 312 309 305 304 305 305 300 298 299 298 298 296 296 295 295 296 297 298 298 297 297 296 296 295 294
319 318 317 316 315 314 312 309 306 305 307 304 299 299 299 299 298 297 296 295 295 295 295 296 297 297 298 297 296 295 295 294
319 317 316 315 314 311 309 307 306 304 302 302 300 300 299 298 298 297 296 295 295 295 295 295 295 296 296 296 295 295 295 293
320 317 316 314 312 310 307 307 305 303 304 300 300 300 299 298 298 297 296 295 295 294 295 295 295 294 294 294 294 294 293 292
320 318 315 314 311 309 307 305 304 303 301 300 300 299 299 298 297 297 296 295 294 294 295 295 294 294 294 294 294 293 292 292
320 318 315 313 311 308 306 305 304 303 300 299 299 299 299 298 297 296 296 295 294 294 295 294 293 293 292 292 292 291 291 291
319 317 314 312 310 307 306 305 305 301 300 299 299 298 298 297 296 296 295 294 294 294 294 294 294 293 291 290 291 291 290 290
318 315 313 311 309 307 306 306 304 301 300 299 298 298 297 296 295 295 295 294 294 294 294 294 294 293 292 289 289 288 288 288
316 315 313 311 309 306 306 304 302 300 299 298 298 297 296 295 294 294 294 294 294 294 293 293 293 293 291 289 288 288 287 287
315 314 313 312 309 306 304 303 301 299 298 297 297 295 294 293 293 294 294 294 294 293 293 292 292 291 290 288 288 287 287 286

GFSFLT1_850_thetae_018.txt.gz
Theta_e
329 328 327 327 332 335 332 330 331 329 324 324 324 324 324 321 319 317 315 313 311 311 312 311 311 310 310 309 308 307 306 305
330 330 329 328 332 335 333 331 329 329 325 326 326 322 320 319 317 314 312 311 311 310 310 311 310 309 308 307 305 304 303 303
331 332 332 332 333 335 333 331 327 327 327 326 321 321 320 318 315 312 312 311 311 310 309 309 308 307 305 303 303 302 303 303
331 333 333 333 333 333 331 328 327 326 325 322 321 321 319 315 314 312 312 311 309 308 308 306 304 304 303 302 301 302 302 302
331 333 334 332 331 330 329 329 328 324 322 321 320 317 316 315 313 312 311 310 309 306 303 302 301 300 300 301 302 302 301 301
331 332 332 332 331 330 327 324 323 321 318 318 318 316 314 313 311 309 307 305 303 299 298 298 296 295 297 300 301 301 301 299
331 330 329 327 326 323 322 319 317 317 317 317 316 313 311 309 309 305 306 299 298 298 297 295 295 297 298 300 301 300 300 299
328 325 323 323 322 320 317 316 316 316 315 315 314 311 306 310 310 303 299 297 297 296 296 295 295 297 299 300 300 299 297 298
324 321 320 319 319 318 316 316 315 313 311 309 307 309 311 307 301 297 296 296 295 295 295 293 295 298 299 298 297 297 296 296
321 319 319 319 318 317 316 315 313 310 306 305 309 310 303 299 297 296 296 295 294 295 294 294 295 297 298 296 298 296 296 295
320 319 319 318 318 316 315 314 311 307 306 308 309 306 301 298 297 298 296 295 294 295 295 295 295 295 297 298 297 296 296 295
320 319 319 319 317 316 315 313 308 306 306 308 306 301 300 299 299 298 297 296 295 295 295 295 295 295 295 295 293 295 294 294
321 320 319 318 317 316 314 310 307 306 305 306 302 301 300 299 299 298 297 297 296 295 295 295 295 295 295 295 294 294 293 293
321 320 319 317 316 315 312 309 308 306 304 303 301 301 300 299 299 298 298 297 296 295 294 295 295 293 293 293 293 293 293 292
322 321 319 317 316 314 311 308 307 305 303 302 301 300 300 299 299 298 297 297 296 294 294 294 295 294 293 292 292 292 291 291
322 322 320 318 316 314 311 308 307 305 305 301 300 300 299 299 298 297 296 296 295 295 294 294 294 294 293 292 290 290 290 290
320 321 321 318 315 314 311 308 307 306 303 300 300 299 299 298 297 295 295 295 295 295 294 294 294 294 294 293 292 288 288 287
318 319 320 318 315 313 311 308 307 306 302 300 300 299 298 297 295 295 294 294 294 295 294 294 293 293 293 292 290 288 288 287
317 317 317 316 314 312 310 307 306 304 301 300 298 298 296 294 293 294 294 294 294 294 294 293 293 293 292 292 290 288 287 287

GFSFLT1_850_thetae_021.txt.gz
Theta_e
326 326 328 330 330 330 329 326 326 326 327 324 323 323 323 322 320 318 315 311 311 311 311 311 311 310 310 309 308 305 301 302
327 327 328 331 332 331 330 329 328 328 327 323 324 325 322 319 317 316 312 311 311 311 311 311 310 309 308 306 301 300 300 299
328 328 329 331 332 333 331 330 328 329 325 324 325 321 319 318 316 314 311 311 311 310 310 308 306 303 301 300 299 298 299 301
329 329 330 334 333 333 331 331 330 327 326 324 321 320 319 318 315 313 312 311 311 309 308 306 303 302 300 299 297 299 302 302
331 331 331 333 334 331 331 329 326 326 327 321 321 321 319 316 314 312 311 312 310 308 307 304 300 297 296 295 296 299 301 301
331 332 333 333 333 331 328 327 328 327 322 321 321 319 317 314 313 312 311 308 308 306 303 297 296 294 293 295 299 300 301 301
331 332 333 332 330 328 327 327 323 322 321 320 318 317 316 314 313 312 309 310 305 298 296 295 294 293 294 297 299 300 300 300
332 333 332 330 329 328 326 323 322 321 318 318 317 316 315 314 310 310 312 304 297 296 294 294 293 293 296 298 298 298 299 297
331 330 329 328 327 325 322 321 320 318 317 317 316 315 313 309 310 310 301 296 295 294 294 293 292 294 297 298 298 295 296 296
328 327 326 325 323 322 319 317 316 316 316 316 315 312 309 311 307 300 296 295 294 294 293 292 292 293 295 296 297 297 296 295
325 324 322 321 321 320 317 316 316 315 313 311 308 309 309 306 300 297 296 295 295 294 293 293 293 293 294 295 296 295 295 295
322 321 319 319 318 318 317 315 314 313 311 308 307 308 305 300 298 298 297 296 296 295 294 294 293 295 295 295 295 294 294 294
321 319 318 318 318 318 317 315 314 312 309 306 307 305 301 300 299 299 298 298 297 296 295 293 294 295 295 294 293 292 293 293
321 319 319 318 318 318 316 315 313 310 307 306 306 304 301 300 300 299 298 298 297 297 296 294 294 295 295 294 292 292 292 292
321 320 319 319 318 317 316 315 313 309 307 306 306 303 301 300 299 299 298 297 297 296 296 294 294 294 294 294 293 292 292 291
322 320 319 319 318 317 316 315 313 309 307 305 304 301 301 300 299 299 298 297 296 295 294 294 294 294 294 294 293 293 292 290
318 321 320 319 318 317 316 314 311 308 307 305 303 300 300 300 299 298 295 294 294 294 294 295 294 294 293 293 293 293 291 288
317 320 321 320 318 317 316 314 311 308 307 306 302 300 300 298 298 295 294 294 294 294 294 294 294 294 293 293 292 292 290 288
316 316 317 318 318 316 315 313 310 307 306 303 300 300 298 296 295 294 293 293 293 293 293 294 294 293 293 293 292 291 290 288

GFSFLT1_850_thetae_024.txt.gz
Theta_e
329 328 328 327 314 318 323 326 326 325 326 326 324 321 321 322 321 319 314 312 310 311 311 311 310 310 310 309 307 303 299 298
328 328 328 328 324 319 323 321 319 324 327 326 325 321 322 323 321 318 315 311 311 311 311 310 310 309 307 302 300 298 296 296
328 328 328 329 329 328 328 325 323 325 325 326 323 323 323 322 318 316 313 311 311 311 311 309 309 306 301 299 298 296 295 299
326 327 328 329 330 331 330 328 328 327 328 327 323 324 323 319 317 316 312 311 312 312 311 311 309 303 300 297 296 295 297 299
328 328 327 329 330 331 329 330 329 329 329 324 324 322 319 318 317 315 312 312 312 312 310 309 306 300 296 294 294 295 298 300
328 328 329 331 331 331 330 330 329 330 325 325 321 319 319 319 317 314 313 312 311 308 307 303 298 295 294 293 294 295 299 300
329 329 330 330 331 330 330 329 330 327 326 323 321 321 320 318 315 313 313 310 306 305 302 297 295 294 293 293 295 297 298 297
330 331 331 332 331 330 328 326 327 327 328 322 321 321 320 317 315 313 311 308 306 299 296 294 294 293 292 293 295 297 297 296
330 331 332 332 331 328 327 326 326 325 322 321 320 318 315 313 312 309 308 303 298 296 296 293 293 292 292 292 293 296 296 296
331 332 332 331 330 329 328 327 324 321 319 318 316 314 313 312 309 309 303 298 296 295 294 293 292 292 291 293 294 295 295 294
331 332 331 330 329 328 325 324 324 321 318 317 315 313 310 309 307 304 300 299 296 295 295 294 293 291 292 294 293 294 294 294
330 330 328 328 327 326 324 324 322 321 317 316 315 312 309 309 309 301 299 299 299 296 295 295 295 292 293 295 295 293 293 293
328 327 326 325 324 322 320 320 318 317 316 315 314 311 308 309 305 300 300 299 298 295 296 296 296 293 293 295 295 294 293 292
326 325 325 325 322 320 319 318 318 317 316 314 312 308 308 308 302 301 300 299 298 297 297 296 296 293 293 294 294 294 293 292
324 324 324 322 320 319 318 318 317 316 314 313 310 307 307 305 301 300 299 298 297 297 296 295 294 294 294 294 294 294 293 292
323 321 321 320 319 318 318 318 317 316 314 310 307 306 305 301 301 299 299 297 297 295 294 293 294 294 294 294 294 294 293 293
321 322 320 318 318 318 318 317 316 315 312 309 307 305 302 301 300 298 296 296 296 294 293 294 294 294 294 294 293 293 293 292
317 319 319 319 319 319 318 317 316 315 310 307 305 303 301 300 298 297 297 298 296 293 294 294 294 294 294 294 293 293 292 292
315 315 316 318 319 318 318 317 315 312 308 305 304 301 299 298 297 297 298 295 294 294 293 293 293 293 293 293 293 292 291 291

GFSFLT1_850_thetae_027.txt.gz
Theta_e
327 326 326 325 325 326 328 327 326 326 326 326 327 326 321 321 321 320 318 317 314 312 311 311 310 310 309 307 304 300 298 296
329 328 327 326 324 322 323 326 326 325 326 326 327 325 323 321 321 320 317 313 311 311 311 310 310 309 310 308 302 298 297 296
330 329 328 326 321 323 324 325 325 326 325 325 326 325 322 321 322 320 315 312 311 311 311 310 310 311 310 309 300 296 295 295
330 329 328 327 325 321 321 319 323 325 325 325 326 325 322 322 321 317 314 312 311 311 311 310 310 310 310 302 296 294 294 296
328 329 329 327 327 325 322 321 325 323 324 326 326 325 323 322 321 317 315 312 311 311 311 310 309 309 304 296 294 294 294 297
327 327 327 327 328 328 327 327 328 325 325 326 327 326 323 323 319 316 314 312 312 312 310 307 306 301 296 294 293 294 296 297
326 326 327 328 328 329 328 329 328 328 327 327 326 324 324 321 317 315 314 313 312 311 306 304 301 296 296 293 293 294 296 297
326 327 326 327 328 329 329 329 328 328 328 329 324 325 323 319 319 317 315 314 311 305 302 299 301 299 293 292 292 293 296 296
325 327 329 329 329 329 329 329 328 328 329 326 326 326 324 320 318 316 314 311 305 302 306 304 294 293 292 291 292 293 295 295
325 326 329 330 330 330 330 328 327 326 325 327 327 323 321 320 316 314 311 306 303 309 304 296 294 293 292 292 293 293 293 293
326 327 329 330 330 330 329 327 327 326 325 325 323 321 319 316 314 312 309 306 310 305 299 295 295 294 292 292 293 294 294 294
327 328 330 330 330 329 328 328 327 326 324 322 320 318 316 313 311 309 306 306 300 300 297 296 296 294 293 292 293 294 294 293
327 329 330 331 331 329 328 327 326 324 324 321 319 316 314 313 311 308 307 301 301 299 296 296 295 295 294 293 292 293 294 294
329 330 330 331 330 328 327 326 324 322 321 319 317 315 314 312 309 308 306 301 300 299 297 296 295 295 293 294 294 294 294 294
328 329 330 330 328 326 325 324 322 321 319 317 316 315 314 312 308 307 304 301 299 298 297 295 296 293 294 294 294 294 294 294
324 326 327 326 326 324 322 322 320 319 317 317 316 315 313 309 306 303 300 299 298 297 295 298 294 294 294 294 294 294 294 294
323 324 324 324 323 322 321 320 319 318 317 317 316 313 308 305 302 300 299 297 295 296 298 297 294 294 294 294 294 294 293 293
317 318 319 319 319 319 318 319 318 318 317 315 312 307 305 302 300 298 296 295 297 298 299 295 294 293 293 293 293 293 293 293
314 315 315 316 316 317 317 317 317 316 314 312 309 304 303 300 298 296 298 298 299 299 296 293 293 293 293 293 293 293 293 292

GFSFLT1_850_thetae_030.txt.gz
Theta_e
325 323 324 324 327 328 326 323 321 322 325 326 326 327 327 325 320 320 319 319 320 319 316 311 310 310 309 307 304 301 298 296
325 322 323 326 327 326 326 325 323 324 325 325 326 325 325 321 320 320 319 318 317 314 311 310 310 309 307 306 302 298 296 296
328 324 324 325 322 324 325 326 325 325 325 325 325 326 324 322 321 320 317 314 312 311 311 310 309 308 307 305 301 298 296 295
329 328 327 327 326 321 324 325 326 327 326 326 326 326 324 322 320 319 317 313 311 310 310 310 308 307 304 301 299 299 296 295
328 328 329 327 328 326 323 321 321 324 325 325 326 326 325 323 321 319 316 314 312 311 310 309 307 306 301 300 304 299 295 294
328 328 328 328 327 326 323 324 323 324 324 325 326 326 325 323 320 318 316 314 313 311 310 308 305 307 308 312 310 296 293 294
326 327 328 328 327 328 326 324 325 324 323 325 326 326 324 322 321 318 316 315 313 310 308 306 305 309 311 311 296 293 292 293
325 325 326 327 327 328 329 325 326 326 324 325 326 325 325 323 323 320 318 315 314 311 309 308 307 309 310 298 293 292 292 293
323 325 325 326 326 326 328 327 326 325 326 327 326 327 325 323 323 321 318 318 315 312 309 306 309 311 301 296 293 292 292 293
323 324 326 325 325 325 326 327 328 327 327 327 326 327 325 325 324 321 318 316 313 311 305 307 310 304 297 294 292 292 293 293
323 324 325 326 326 327 327 328 329 328 327 326 327 327 325 324 322 321 319 315 312 306 306 306 300 298 294 293 294 293 294 294
322 323 324 325 325 327 329 329 329 327 327 326 325 325 322 322 321 320 318 314 308 303 303 300 296 295 295 298 294 292 293 294
324 325 325 326 327 328 329 329 328 326 326 326 324 321 322 321 319 317 314 310 304 302 300 297 296 295 298 296 293 293 293 293
324 325 326 327 328 329 330 328 327 325 324 324 322 322 320 318 316 314 310 306 303 300 299 297 296 297 299 294 294 294 294 294
323 324 325 328 329 329 328 327 326 325 324 323 321 320 318 316 314 311 307 303 300 299 298 297 295 297 298 294 294 294 294 294
322 323 326 327 328 328 327 327 327 326 323 321 319 317 315 313 311 308 303 301 299 298 297 296 296 298 298 294 294 294 294 294
321 322 322 323 324 324 324 324 324 323 320 318 316 314 312 311 308 304 302 300 299 297 296 295 297 299 295 294 293 293 294 293
317 318 318 318 318 317 317 317 318 318 318 317 315 312 310 308 305 302 300 299 297 296 296 297 297 298 294 293 293 292 292 293
314 314 314 313 313 313 315 316 316 315 315 314 311 309 307 304 301 298 297 296 296 297 297 297 298 296 293 292 291 291 292 292

GFSFLT1_850_thetae_033.txt.gz
Theta_e
325 322 320 321 323 325 326 326 324 317 318 323 323 324 325 324 324 322 321 321 321 320 319 319 314 310 310 309 308 303 298 296
326 326 322 321 323 325 326 326 324 320 318 324 325 326 325 325 324 320 320 319 319 319 318 314 311 310 309 309 305 297 296 297
327 326 324 323 323 323 326 326 324 320 319 323 325 325 326 326 323 320 320 319 318 317 314 311 310 310 308 306 301 301 302 300
328 327 324 322 323 324 326 326 326 323 322 324 325 325 326 325 321 320 319 318 316 314 311 311 310 308 306 302 308 311 304 305
328 328 326 324 323 324 324 324 324 326 325 324 324 325 325 325 322 321 319 317 313 312 311 310 309 307 305 308 310 310 308 296
329 328 328 327 326 325 323 322 324 326 324 325 324 323 324 324 322 320 317 315 313 311 310 310 310 308 308 312 310 302 306 295
328 329 328 328 328 328 327 327 325 325 325 323 323 325 325 325 323 321 318 316 313 312 311 310 310 309 308 310 311 308 295 297
328 327 327 327 328 328 328 328 326 325 322 323 326 326 326 326 324 323 320 317 316 316 313 311 311 307 309 310 306 297 296 293
327 327 327 326 326 327 329 328 326 322 323 324 326 326 326 325 325 324 321 320 318 314 311 309 307 306 308 298 299 295 295 295
319 324 326 325 325 326 326 328 328 325 325 325 325 326 325 325 325 324 322 320 317 312 311 309 306 307 304 305 295 296 299 297
319 320 322 322 323 325 325 326 326 327 327 327 326 326 325 325 325 323 322 321 315 312 311 306 305 303 299 297 296 301 296 293
321 321 322 323 324 325 325 325 325 327 327 328 326 325 325 324 323 323 321 318 314 312 309 303 303 304 301 296 300 298 293 293
322 322 323 323 324 324 325 326 327 327 323 323 323 323 323 322 320 320 320 319 314 310 304 302 300 297 295 299 298 296 294 293
321 322 324 324 325 325 325 327 328 325 325 323 323 322 322 322 320 320 319 317 313 307 302 300 299 298 296 297 301 295 294 294
320 323 324 325 326 326 327 328 327 326 325 324 324 323 323 322 320 319 317 314 308 306 301 299 299 296 296 298 300 294 294 294
320 321 323 325 326 327 328 328 328 327 326 325 324 323 320 319 317 314 311 307 303 300 299 298 297 296 297 298 299 294 294 294
320 321 321 322 322 323 322 321 320 320 320 319 320 319 316 314 311 308 305 302 300 299 297 296 295 296 298 298 298 294 293 293
317 317 317 317 317 316 315 315 315 316 316 316 315 314 312 310 309 306 303 300 299 297 296 295 297 299 298 297 296 293 293 293
313 313 313 313 313 313 314 314 314 315 314 314 313 311 309 307 306 303 301 299 296 297 298 298 298 298 297 297 293 292 291 290

GFSFLT1_850_thetae_036.txt.gz
Theta_e
325 325 322 322 322 322 322 322 321 321 323 315 319 320 324 324 325 324 323 323 323 325 325 322 319 318 311 310 309 310 305 306
325 324 324 323 323 324 325 325 325 324 325 322 322 324 324 324 324 324 323 321 321 321 320 319 318 314 310 310 310 308 312 307
327 327 325 324 324 325 326 327 328 326 326 323 325 326 325 325 324 324 322 320 320 319 319 319 317 311 310 309 309 310 306 306
329 329 329 326 325 325 326 328 329 329 327 325 325 325 325 326 325 325 322 320 320 319 319 317 313 310 310 309 309 312 307 306
329 330 329 329 327 327 327 327 329 329 328 326 324 323 325 323 324 323 322 321 319 318 317 314 311 311 310 309 309 311 311 307
328 329 330 330 328 327 328 328 329 330 329 327 323 323 326 325 323 323 322 320 318 316 315 313 311 310 310 307 309 311 308 307
328 329 330 331 330 329 326 327 329 330 329 326 325 325 325 325 322 323 322 321 319 315 313 312 311 310 309 306 309 310 303 300
328 329 330 331 332 332 330 330 327 325 325 322 321 322 325 324 324 323 323 323 320 317 314 312 311 309 306 306 309 306 308 299
328 328 328 330 331 333 331 329 327 325 324 324 322 323 323 324 322 324 325 323 321 319 316 312 310 307 307 307 306 306 301 296
325 327 328 329 330 332 332 330 329 328 324 322 320 321 324 323 324 326 325 321 320 316 316 313 311 306 305 306 304 298 295 300
322 323 325 327 328 330 331 331 331 330 325 324 324 325 325 325 325 326 325 323 319 318 317 314 310 307 306 302 300 298 301 300
324 324 325 326 327 329 329 330 331 331 327 325 326 326 327 325 325 324 322 323 322 320 318 314 309 305 304 301 298 300 297 299
326 327 327 328 328 328 329 329 330 330 330 328 326 326 324 322 322 321 322 322 321 320 316 312 306 303 298 296 298 298 299 299
326 327 328 329 329 329 329 329 329 329 327 326 325 323 322 323 322 322 321 321 319 316 307 307 303 300 298 297 297 300 299 298
324 327 327 328 327 326 326 326 326 327 326 326 325 324 323 323 322 322 320 319 317 312 305 303 300 297 296 296 296 298 299 296
322 326 326 326 326 325 325 327 327 327 326 324 324 323 322 321 319 319 318 316 315 310 305 300 299 296 297 296 298 299 298 298
322 323 323 323 323 322 324 323 322 320 319 318 318 318 318 317 315 313 311 309 306 303 300 298 297 296 296 298 299 298 297 295
317 317 317 317 317 317 316 315 315 315 315 316 315 314 312 311 309 307 306 304 301 299 298 301 299 296 297 299 298 297 296 295
313 313 313 313 313 313 314 314 314 313 313 312 310 310 309 307 306 305 303 301 300 300 299 300 297 297 299 298 297 295 293 293

GFSFLT1_850_thetae_039.txt.gz
Theta_e
325 324 324 323 321 319 319 320 317 317 317 319 321 320 322 322 326 325 325 326 323 324 324 322 323 319 317 315 312 310 309 309
326 323 323 323 323 321 322 323 325 324 324 321 320 321 322 322 324 326 326 326 323 324 324 322 321 318 316 313 311 310 309 311
325 326 323 323 324 323 322 323 325 326 326 323 321 321 323 325 325 325 327 326 324 323 322 320 319 317 315 312 310 310 311 311
325 326 326 325 325 326 326 326 326 328 327 325 323 324 325 326 326 326 326 325 323 322 320 319 317 316 314 312 310 310 312 311
325 326 327 326 325 326 327 327 328 328 327 327 324 325 327 327 327 326 325 324 322 320 319 318 316 315 313 311 310 310 311 311
326 326 327 328 327 326 327 328 328 329 328 327 327 326 327 327 327 326 324 322 322 320 319 318 316 314 311 310 309 309 311 311
326 327 328 327 328 328 328 328 328 328 330 328 328 328 327 326 327 325 323 321 322 320 319 320 318 314 311 310 309 308 310 308
326 326 327 329 330 330 329 329 329 329 330 330 326 322 325 321 324 325 324 321 320 321 321 321 319 313 310 309 309 307 310 306
326 325 327 329 331 332 332 331 331 330 330 323 324 323 322 321 322 323 324 321 320 323 321 320 316 312 309 309 307 309 307 306
326 326 325 328 330 332 334 333 333 332 329 324 323 322 320 323 324 325 323 322 323 324 321 319 314 310 310 310 307 307 305 300
324 326 327 327 329 330 333 336 334 333 329 325 323 324 321 322 323 323 324 323 324 323 320 318 316 314 312 306 304 303 299 302
325 325 325 327 328 330 332 335 335 333 331 328 323 323 322 323 325 324 323 323 323 322 318 317 314 313 311 304 303 299 302 302
326 327 327 327 327 329 330 333 334 333 333 329 325 326 326 325 327 326 324 322 321 320 316 317 312 308 304 302 302 300 300 299
325 328 329 330 330 330 331 332 332 332 333 330 329 329 328 328 327 325 323 320 319 319 318 315 307 304 302 301 299 299 297 299
323 327 330 331 332 332 332 332 332 332 332 331 330 328 328 325 323 322 321 320 318 316 313 307 306 303 300 298 298 299 298 298
321 326 329 330 330 330 330 329 329 327 326 326 324 322 321 320 321 320 318 317 315 311 308 305 303 299 299 300 300 300 297 299
323 326 328 328 328 328 327 325 324 323 322 321 319 317 316 314 313 312 312 313 312 310 307 305 303 300 301 301 300 298 297 298
324 325 326 326 325 323 321 319 318 317 315 314 313 311 310 311 312 311 309 308 306 304 302 301 300 299 300 300 297 295 296 298
321 320 320 319 318 317 316 315 314 313 312 311 310 309 309 309 308 307 305 303 301 299 298 298 298 299 298 298 297 297 297 295

GFSFLT1_850_thetae_042.txt.gz
Theta_e
326 320 318 318 317 315 316 316 315 316 316 319 321 320 316 315 314 321 323 321 325 323 324 324 323 321 319 318 315 313 311 310
326 323 321 320 319 316 314 316 318 319 320 320 319 320 321 315 320 324 324 322 326 324 324 324 323 321 319 318 314 312 310 310
324 325 323 323 320 318 315 315 317 317 317 317 316 315 313 314 314 319 320 323 325 325 324 324 322 321 318 317 315 312 310 312
325 324 324 324 322 319 321 322 323 322 320 321 323 321 320 322 322 320 322 324 324 325 324 324 322 319 318 317 315 311 310 312
326 325 324 323 324 323 321 322 323 324 323 326 324 322 322 324 326 326 326 325 325 324 323 322 321 319 317 317 315 311 311 313
326 326 326 325 324 324 324 324 325 325 326 325 327 323 325 325 324 324 326 326 324 323 322 321 320 319 318 315 314 311 311 311
326 326 326 327 326 325 326 326 327 328 327 326 327 326 324 326 326 325 325 325 324 323 322 321 319 319 317 314 313 310 309 310
327 327 327 328 327 327 326 327 327 328 329 329 327 326 327 326 324 324 325 324 324 323 322 320 319 318 317 314 311 310 309 308
326 326 327 328 328 329 328 327 327 328 328 329 328 321 323 326 324 322 321 322 322 324 322 321 320 318 317 310 310 311 310 307
327 326 326 328 328 329 329 330 328 328 328 329 329 322 322 324 322 321 321 320 322 323 323 321 319 318 315 311 311 310 309 306
326 327 326 326 329 330 330 331 330 330 330 330 330 324 323 323 322 322 322 323 323 324 322 321 319 317 316 312 311 310 306 305
325 325 325 327 327 330 332 332 332 332 332 331 330 329 325 324 323 322 323 323 322 323 323 322 320 318 315 311 309 308 304 302
325 326 326 325 326 329 331 334 334 333 333 333 331 329 325 324 323 322 324 324 324 323 321 320 318 316 313 309 307 304 302 302
324 327 328 328 327 328 331 334 335 333 332 331 330 329 326 323 323 326 325 324 321 320 318 317 317 312 309 308 306 303 300 301
322 326 328 330 330 330 330 332 333 333 332 331 332 326 325 326 325 323 323 322 320 319 318 315 312 311 308 305 304 302 300 300
321 324 329 331 332 332 331 332 332 332 330 330 329 328 327 325 323 322 320 319 318 317 315 314 311 307 305 305 302 300 300 301
320 322 329 331 332 332 332 331 331 330 327 328 327 326 322 320 319 319 318 317 316 314 313 311 309 306 305 303 300 299 300 299
323 324 329 330 330 330 328 326 325 325 323 322 321 319 316 315 314 314 313 312 311 309 308 307 305 303 301 299 300 298 298 298
324 327 328 328 327 325 323 321 320 319 318 316 314 313 312 312 311 310 308 306 305 303 302 300 299 298 298 298 298 297 297 297

GFSFLT1_850_thetae_045.txt.gz
Theta_e
321 320 318 317 317 317 317 318 316 317 316 314 316 316 315 313 314 313 313 315 314 315 324 322 323 323 322 321 319 315 313 312
320 319 318 316 316 316 317 316 315 314 315 314 314 314 312 313 314 313 318 321 319 318 320 324 323 323 323 321 319 316 314 311
320 319 318 317 316 316 315 316 316 316 316 317 318 319 318 316 317 316 316 317 320 319 321 322 323 324 322 320 319 317 315 311
323 322 320 319 315 316 316 316 316 317 320 321 321 321 321 321 318 315 316 319 320 321 321 324 323 323 322 320 319 317 315 311
325 324 323 319 317 315 316 317 318 318 318 319 319 317 317 315 314 315 315 315 320 322 323 324 323 322 321 320 318 317 316 310
324 324 323 323 319 316 316 316 316 316 316 318 318 319 318 317 320 321 323 324 325 324 323 323 323 323 322 319 318 317 316 310
325 325 324 323 322 321 318 318 321 322 323 321 324 326 323 321 322 323 325 325 325 325 324 322 322 322 321 319 318 317 314 312
325 324 324 324 323 322 322 322 321 322 323 323 324 325 325 322 324 324 325 324 323 324 323 323 323 322 321 319 317 315 315 311
326 326 325 326 325 325 325 323 324 324 325 326 326 325 325 325 324 325 325 324 322 321 323 323 323 322 321 318 317 316 315 311
325 326 326 326 326 326 326 326 324 324 326 327 327 327 326 327 327 326 325 325 321 321 321 323 323 322 321 319 317 316 314 309
326 326 326 326 326 327 326 327 327 327 325 326 328 329 328 327 327 326 326 325 324 322 321 323 322 322 321 318 316 313 309 309
326 326 326 326 327 328 326 327 327 327 327 326 327 327 328 328 325 322 325 325 322 322 324 324 322 322 320 318 316 311 308 308
324 326 327 326 324 325 324 328 324 324 328 327 327 328 328 328 327 324 324 323 324 326 324 322 320 320 319 318 315 311 308 307
325 326 326 326 326 328 326 329 327 326 329 329 329 329 329 328 326 326 324 323 323 323 322 321 320 317 317 316 311 308 307 307
323 324 324 322 326 328 332 331 330 330 330 330 331 330 329 329 327 325 323 323 322 322 320 320 319 318 316 311 308 307 306 303
322 325 326 326 327 329 332 334 334 333 333 332 331 330 330 327 326 325 325 323 322 320 320 319 318 315 312 310 308 306 304 302
319 322 328 329 330 331 331 331 332 332 331 330 330 330 328 326 327 326 324 322 320 319 317 316 314 312 310 307 305 303 300 298
319 320 327 330 331 331 331 331 331 331 331 331 329 328 327 326 324 322 320 318 317 316 314 312 310 307 305 304 301 299 298 299
321 321 328 330 331 330 331 330 329 328 328 327 326 325 324 323 319 317 315 314 313 311 309 307 305 303 302 299 298 298 297 296

GFSFLT1_850_thetae_048.txt.gz
Theta_e
320 320 320 320 319 319 320 321 321 320 317 316 320 318 314 317 319 315 314 315 315 318 320 323 323 323 322 322 321 320 319 315
320 320 319 318 317 317 319 320 318 315 316 316 314 315 314 318 316 314 315 315 314 315 316 317 323 322 323 322 322 321 318 314
319 319 319 318 317 317 317 318 317 316 316 315 315 315 315 317 316 315 315 314 314 315 314 315 319 322 323 322 322 322 318 315
320 319 318 317 317 317 317 317 316 316 316 314 314 316 316 316 316 314 314 314 315 316 319 318 319 321 323 323 323 322 320 317
323 319 317 316 316 316 316 316 316 315 316 315 315 315 314 314 313 313 314 314 318 319 320 319 320 322 322 322 323 321 319 318
325 321 319 317 315 316 317 316 316 316 315 316 317 317 318 318 316 314 313 315 317 315 314 318 321 322 322 322 322 320 319 318
323 323 321 318 315 316 317 317 316 317 318 320 320 320 320 320 318 317 316 314 314 319 317 321 322 323 323 322 322 320 319 318
324 324 323 322 318 315 316 316 317 317 318 318 318 318 318 317 316 316 317 319 321 324 324 323 323 322 322 322 322 321 319 316
323 324 324 323 322 318 315 315 315 316 315 314 315 316 317 317 320 321 319 321 322 324 323 322 323 323 323 322 321 320 319 318
323 324 324 324 324 322 319 317 317 317 318 318 319 319 320 322 325 325 322 322 323 323 324 323 321 322 323 322 321 320 318 317
325 325 325 324 324 324 323 321 321 319 319 319 320 322 322 323 324 325 325 323 325 324 324 322 321 322 322 322 321 319 318 316
324 325 325 325 325 324 325 324 323 323 322 321 322 322 323 325 325 325 325 325 325 325 325 324 323 322 322 321 320 319 318 316
325 325 325 325 325 325 325 325 325 325 326 325 325 325 325 326 326 326 326 326 324 323 324 324 322 322 321 320 319 319 316 316
324 325 325 325 325 325 326 326 326 326 326 326 326 326 323 325 327 326 319 321 324 324 323 321 324 321 320 320 319 317 315 312
324 325 325 325 326 326 325 325 326 327 327 326 326 324 326 327 326 326 322 319 322 324 323 323 322 320 319 318 317 316 313 309
324 325 325 326 326 325 326 327 326 327 326 326 327 325 327 328 327 327 326 327 325 323 322 322 321 320 319 318 315 311 308 307
320 325 325 327 327 326 325 325 328 328 326 327 327 327 328 328 327 326 325 326 324 323 321 320 319 319 317 314 310 308 306 304
320 320 323 325 325 325 326 326 328 332 331 330 329 329 328 327 326 325 325 323 322 321 320 319 317 315 312 309 307 305 304 301
319 319 319 324 327 328 329 329 331 330 330 330 329 329 328 327 324 323 322 321 319 318 316 314 313 311 309 306 304 302 299 298

GFSFLT1_850_thetae_051.txt.gz
Theta_e
321 319 319 319 321 322 322 323 325 323 315 313 323 320 319 320 320 316 316 317 320 320 321 322 321 322 321 322 321 321 320 319
321 320 319 318 319 318 319 320 324 320 317 317 323 316 322 322 321 318 315 321 319 321 318 319 322 322 322 322 322 321 321 319
322 319 319 318 318 316 318 321 321 315 315 319 321 320 322 321 320 316 316 319 316 316 315 315 317 318 322 322 322 322 321 320
323 318 319 318 317 317 317 319 321 321 320 319 318 321 321 319 317 316 316 315 315 314 314 315 316 316 320 321 322 322 322 322
324 319 318 318 317 317 317 318 319 318 318 316 316 319 318 315 313 315 315 315 315 315 314 316 318 319 318 320 322 323 322 322
321 320 316 317 316 317 317 317 318 318 318 316 316 315 314 315 313 317 316 316 315 314 314 317 319 320 319 320 321 322 322 321
322 320 320 316 316 316 317 317 317 316 316 317 316 315 314 314 315 316 316 317 315 314 313 317 316 316 317 320 321 322 322 322
323 322 322 319 316 315 317 316 317 315 315 316 316 315 315 315 314 315 315 314 314 314 313 314 315 316 318 322 322 322 322 321
323 321 321 322 318 315 316 316 317 316 315 315 315 316 315 316 316 315 315 314 314 314 315 316 316 322 323 319 321 322 322 322
322 322 321 322 322 318 315 315 315 316 317 318 317 317 317 317 317 317 317 316 316 316 317 320 322 322 322 323 323 322 322 321
321 322 322 322 323 323 319 316 315 316 316 317 317 317 317 317 317 315 314 316 317 321 321 321 323 322 322 322 322 322 322 321
324 324 324 324 323 324 324 321 316 316 315 315 315 315 314 315 315 315 317 319 322 323 324 322 323 324 323 322 322 321 321 320
325 325 324 324 324 323 324 324 323 321 318 316 316 316 317 317 318 319 320 322 323 323 323 324 324 324 323 322 322 322 321 319
323 324 324 324 324 324 324 324 324 324 322 321 318 318 318 319 320 321 323 323 322 322 321 323 324 324 323 323 322 322 320 319
324 324 324 324 324 324 324 324 324 324 324 323 322 323 323 323 322 324 324 324 325 324 321 323 324 324 321 323 322 320 319 319
321 323 323 323 323 323 324 325 325 325 325 324 324 324 324 324 325 325 325 325 326 325 323 319 324 323 323 323 320 319 318 316
320 321 323 323 322 323 323 323 325 325 325 325 325 325 325 326 326 326 325 326 327 327 325 319 322 323 323 322 319 318 316 312
320 320 321 324 323 323 322 322 324 325 325 325 326 326 326 326 326 326 325 326 326 328 326 325 323 322 321 319 318 315 312 309
321 320 320 321 323 324 324 325 326 327 327 327 328 327 327 327 327 327 327 326 325 324 324 323 321 320 318 316 313 310 306 305

GFSFLT1_850_thetae_054.txt.gz
Theta_e
320 320 319 321 322 323 324 324 324 323 322 321 320 316 323 323 320 315 316 318 315 314 314 318 319 320 320 320 321 320 320 319
320 319 319 319 319 320 321 322 323 324 323 321 322 315 322 317 315 315 317 315 314 315 321 321 321 321 319 321 321 321 321 320
321 319 319 317 319 318 319 320 323 324 323 318 321 317 320 316 321 318 317 315 316 321 319 319 320 320 320 321 321 322 321 321
322 320 318 318 318 317 317 319 321 323 322 318 317 322 320 314 321 319 317 316 316 316 317 318 320 318 316 317 320 321 322 322
322 322 318 318 317 316 317 319 320 323 322 315 314 320 319 314 321 320 319 316 317 317 317 316 316 317 318 318 319 320 321 321
323 321 321 316 317 317 318 318 320 321 319 318 318 320 319 317 319 319 317 316 316 316 314 314 314 315 316 318 319 319 320 322
324 323 321 318 317 316 317 319 319 320 320 318 317 318 320 319 320 319 317 316 315 316 315 314 314 314 316 318 320 320 320 321
324 324 322 321 317 315 316 317 318 319 319 320 320 319 317 318 320 319 316 314 313 316 316 315 315 314 314 318 317 318 319 321
324 324 323 321 320 316 314 316 317 317 317 318 317 317 316 316 316 315 315 315 313 316 315 316 316 314 313 316 317 319 320 320
324 324 324 323 321 320 316 314 316 316 316 316 316 317 316 316 315 315 314 314 315 315 316 316 315 314 315 317 320 321 321 319
323 324 325 324 323 322 321 317 314 315 316 315 315 316 316 316 315 315 315 315 315 315 315 314 314 316 317 321 320 322 322 322
323 323 323 323 324 322 322 322 322 316 315 315 315 315 315 315 315 315 315 315 315 314 315 316 317 317 322 322 322 322 322 322
323 324 323 323 323 323 322 322 323 323 320 315 315 316 316 316 316 316 316 316 317 316 315 316 320 321 323 323 322 322 323 322
319 322 323 324 324 324 323 323 323 323 322 320 317 316 315 315 316 315 316 316 315 315 317 320 321 322 320 320 321 323 323 322
320 321 323 323 323 323 323 324 323 323 323 323 322 320 319 319 317 316 315 315 316 317 319 321 321 322 322 320 322 323 322 322
319 321 322 322 323 322 323 322 323 323 324 324 324 324 323 321 320 319 319 319 319 319 321 322 322 323 324 321 321 323 321 322
320 319 321 322 321 321 321 321 321 321 322 322 323 323 323 322 322 322 321 321 321 322 322 324 325 325 323 321 322 323 322 320
320 321 321 320 320 321 322 320 321 322 322 322 323 323 324 323 323 323 323 323 323 323 324 325 324 324 323 320 322 323 321 318
319 319 321 320 320 320 322 322 321 322 323 323 324 324 325 324 324 324 324 324 324 324 326 323 322 324 323 321 321 320 317 314

GFSFLT1_850_thetae_057.txt.gz
Theta_e
318 320 320 322 322 324 325 325 325 325 325 320 317 318 318 320 318 316 316 316 318 318 318 318 318 319 319 320 320 318 316 315
319 319 319 320 322 323 324 324 323 325 324 321 318 316 316 317 316 317 317 319 316 319 318 318 317 320 320 320 320 320 320 320
321 319 319 319 319 320 321 322 323 323 323 322 317 316 316 318 318 317 320 319 316 318 315 316 318 320 320 320 320 320 321 321
321 321 318 319 318 318 318 321 322 323 324 322 322 321 319 317 318 321 321 319 316 317 316 320 320 320 320 319 320 321 321 321
322 321 319 318 317 317 317 319 321 322 323 322 321 320 316 316 321 319 317 316 317 316 319 316 318 318 319 317 316 318 319 320
322 323 321 317 317 317 317 318 320 320 321 323 321 321 317 320 320 315 316 317 316 316 315 315 317 317 317 317 317 319 319 320
322 323 322 320 317 316 317 319 321 320 322 323 320 321 318 321 319 314 319 319 317 317 316 316 316 315 315 314 317 319 319 320
322 323 323 321 318 316 317 318 320 321 322 323 321 319 317 320 318 315 318 319 318 316 315 316 316 314 314 314 314 314 317 318
322 323 323 322 320 316 315 317 320 320 320 320 320 319 317 317 320 316 316 319 317 316 316 316 316 316 316 315 315 314 313 315
322 322 323 323 322 320 315 315 317 318 319 320 320 319 318 318 319 320 317 319 319 317 316 316 315 315 315 316 316 315 314 316
322 322 323 323 323 322 320 316 314 316 317 317 318 319 319 319 319 318 317 318 319 319 318 316 315 314 316 316 316 316 314 317
322 323 323 323 324 323 322 320 318 315 315 316 315 316 317 318 318 317 317 317 319 318 317 316 315 314 316 316 315 314 316 318
321 321 322 323 323 324 324 322 321 321 318 315 315 315 315 315 316 316 316 316 316 316 315 315 315 315 315 314 314 315 317 322
319 320 321 322 322 323 323 323 323 322 321 319 317 315 315 315 315 319 315 315 315 315 315 315 315 315 315 315 316 320 321 321
320 320 320 320 321 322 322 323 323 323 322 321 321 320 319 316 315 315 315 315 315 315 315 315 316 316 317 316 317 320 319 319
320 320 320 320 321 322 322 322 322 323 323 322 322 323 323 320 317 316 316 316 316 316 316 316 315 315 315 316 318 320 322 322
319 320 320 319 320 321 321 322 321 322 322 322 323 323 322 323 323 321 319 318 317 317 317 318 318 319 320 319 321 322 322 322
319 319 319 321 320 320 320 320 321 321 320 321 321 322 322 322 322 322 321 321 320 320 319 319 319 320 321 322 322 323 322 323
317 318 318 318 319 320 320 320 320 321 321 321 321 321 321 322 322 322 322 322 322 322 322 323 323 324 323 323 322 322 321 322

GFSFLT1_850_thetae_060.txt.gz
Theta_e
323 322 322 323 323 326 324 325 326 324 322 318 319 318 320 317 318 318 317 316 316 316 314 314 315 318 318 315 315 315 313 313
323 322 323 323 323 323 325 325 325 325 322 319 317 317 319 317 316 320 317 318 317 318 319 316 319 320 320 318 319 318 316 313
324 323 323 322 323 322 323 324 324 324 324 321 318 316 318 318 318 318 317 318 317 317 318 318 318 321 320 320 320 319 318 316
325 323 322 322 321 321 321 323 323 323 323 324 318 317 319 319 318 316 317 317 317 317 318 318 318 319 320 320 320 320 320 318
326 324 323 322 322 320 321 320 322 322 324 323 322 320 318 318 319 317 316 317 320 320 317 318 318 318 319 320 320 320 320 321
326 325 323 322 321 320 319 319 321 322 322 323 323 321 319 317 316 317 319 317 317 320 318 318 315 319 320 320 320 319 317 319
326 325 324 322 321 321 319 320 320 322 322 323 322 322 320 317 317 319 319 317 319 321 317 317 316 319 316 316 317 317 317 318
326 325 324 323 321 320 319 319 320 320 322 323 323 322 322 321 319 318 317 321 320 319 316 317 318 316 315 316 316 317 316 317
326 326 325 324 322 320 317 318 320 319 321 322 323 322 321 322 320 317 318 320 317 316 316 317 315 315 315 316 316 318 317 315
326 326 326 325 323 319 316 318 321 319 320 322 322 322 320 320 320 317 318 319 316 315 316 317 317 316 316 316 316 316 318 318
326 326 326 326 324 321 318 317 320 322 321 320 321 321 322 322 321 319 319 319 316 315 318 318 317 316 316 316 317 318 318 319
326 326 326 326 325 323 321 318 320 321 321 321 321 321 321 322 321 320 320 320 319 319 319 319 319 318 318 318 318 318 318 318
324 326 327 326 326 325 323 321 320 319 320 321 321 321 321 320 320 320 320 321 320 320 320 319 319 319 318 318 318 318 319 319
324 324 326 326 326 325 324 323 322 321 320 319 319 318 319 318 318 319 320 320 320 321 320 319 319 318 319 319 319 318 317 318
321 323 323 325 326 325 325 324 323 322 321 320 319 317 316 315 316 317 317 318 319 319 319 318 318 319 318 317 316 315 315 315
321 320 321 323 324 325 325 324 324 323 322 321 321 321 319 317 317 316 316 316 316 315 316 317 316 316 317 317 318 315 315 316
320 321 320 320 322 323 324 322 322 322 322 322 322 321 321 321 320 318 317 316 316 316 316 316 317 318 316 316 316 316 317 316
317 317 318 318 320 320 323 324 324 322 322 321 322 322 322 321 321 320 320 320 319 319 318 318 318 319 319 317 317 317 318 319
319 319 317 317 318 318 319 322 324 321 321 322 322 322 322 322 321 321 321 321 321 320 321 321 320 320 320 320 320 320 321 321

GFSFLT1_850_thetae_063.txt.gz
Theta_e
328 325 326 327 328 325 327 325 325 325 325 323 322 322 323 320 319 317 320 321 319 319 319 320 319 318 319 319 319 318 318 317
328 325 325 327 327 325 327 327 324 325 324 322 320 321 320 319 313 317 319 319 317 316 315 315 316 318 318 318 318 317 316 315
328 325 326 327 327 326 324 326 326 326 325 322 320 320 321 319 316 319 318 315 315 315 318 314 318 317 318 319 319 320 318 316
328 326 325 326 326 325 325 324 325 325 324 321 320 319 320 318 317 316 317 319 319 318 319 319 316 321 321 322 321 321 320 318
329 327 326 326 325 325 325 322 324 323 322 323 321 319 319 318 317 316 316 318 318 318 316 318 319 320 322 323 323 321 321 322
329 328 327 325 326 325 323 323 322 323 323 322 323 319 319 320 317 318 320 316 317 319 316 317 318 320 321 322 322 321 321 320
328 328 328 325 325 325 324 323 322 322 323 322 323 322 319 319 319 318 318 317 318 318 320 319 318 318 320 318 319 321 320 319
327 328 328 325 325 325 324 323 323 322 324 323 323 322 322 318 318 318 318 316 318 318 319 319 319 318 317 317 319 319 319 318
327 328 328 326 325 325 324 323 323 324 321 321 322 324 322 321 320 319 318 317 316 317 318 317 319 319 317 317 319 316 316 316
327 328 329 328 326 325 324 323 323 322 324 322 323 322 323 322 321 320 318 317 318 319 318 318 319 319 317 317 318 316 315 315
326 327 328 328 327 325 324 323 324 323 323 323 321 322 323 323 322 321 321 319 320 320 320 318 319 320 316 317 317 317 316 316
326 327 328 329 328 326 325 324 323 324 324 322 321 323 322 323 322 322 321 321 319 319 319 320 319 317 316 317 317 318 318 318
327 328 328 329 329 328 326 325 323 323 325 325 324 323 322 322 323 323 322 322 321 320 320 320 318 316 316 316 317 318 319 319
326 328 328 329 329 329 328 327 325 323 324 325 324 324 325 324 323 322 323 322 322 321 322 321 320 319 319 319 319 319 320 320
323 325 327 328 328 329 329 328 327 325 324 324 324 324 323 323 323 323 323 323 322 322 321 322 322 321 321 321 321 321 321 321
322 322 323 324 326 328 328 328 328 327 325 324 324 324 324 324 324 323 322 322 322 322 322 322 322 321 322 322 321 321 321 321
321 321 321 321 321 323 326 328 328 328 327 325 325 324 324 324 323 323 323 322 321 322 322 321 321 320 319 319 320 321 321 321
320 320 321 321 320 320 322 324 327 327 327 327 326 325 324 324 323 324 323 322 322 321 321 321 319 319 318 319 319 319 319 320
320 321 321 322 321 320 320 320 323 327 327 327 326 326 325 324 324 323 323 323 322 322 321 321 320 320 320 319 319 320 320 319

GFSFLT1_850_thetae_066.txt.gz
Theta_e
330 327 327 329 329 329 327 328 327 325 325 324 322 322 322 325 324 322 321 321 323 323 323 323 323 324 323 321 320 320 320 319
330 327 326 328 329 328 328 327 327 325 325 325 322 323 324 323 322 321 318 321 315 320 321 322 322 322 322 321 319 319 319 318
330 327 326 328 329 326 325 325 324 325 325 323 321 323 323 322 321 320 318 316 316 321 321 321 321 320 320 320 319 318 317 317
330 328 326 327 329 328 326 324 324 325 325 323 321 322 322 321 320 317 315 315 316 318 319 317 317 317 317 318 317 316 316 316
330 329 327 327 328 328 325 323 324 325 326 323 321 321 321 320 319 317 316 316 315 318 316 315 314 315 318 316 315 317 319 318
330 329 328 327 327 328 325 324 324 322 324 323 322 320 321 320 316 317 318 318 317 316 316 317 316 314 317 321 320 320 321 321
328 330 329 327 327 327 325 326 323 323 322 323 322 320 320 320 315 317 319 319 316 316 320 319 318 316 320 318 318 320 320 321
326 330 329 328 326 327 325 325 323 322 324 322 322 322 320 320 320 317 317 318 318 318 318 318 318 318 316 318 317 317 320 320
326 329 329 328 326 326 326 325 323 323 321 323 322 323 323 320 320 319 317 316 317 317 317 317 317 317 317 318 319 317 318 317
325 327 329 329 326 326 326 325 324 322 324 323 324 321 323 321 321 320 319 318 318 318 317 316 316 318 318 318 318 317 316 318
326 327 329 329 327 326 326 325 324 324 322 322 323 324 323 322 323 322 320 319 319 318 317 317 316 318 319 318 319 318 317 317
326 327 329 330 328 326 326 325 324 324 324 322 324 324 323 322 322 322 322 321 321 319 318 318 319 319 319 318 317 319 318 317
326 327 328 330 329 328 326 325 325 324 324 324 322 324 324 325 322 323 321 322 322 321 318 319 319 319 319 319 318 318 320 318
325 328 328 330 330 330 328 327 325 324 325 325 324 322 323 324 323 323 323 323 323 321 321 321 320 320 319 318 318 319 319 319
322 323 328 329 330 330 330 329 328 326 324 325 326 325 323 321 322 324 324 323 324 323 322 322 321 320 319 320 318 319 319 317
322 322 322 322 326 329 329 330 330 328 327 324 325 326 326 325 325 324 323 323 324 323 323 323 322 322 322 322 321 320 320 320
321 322 322 322 322 322 320 327 329 329 329 328 326 325 325 325 325 326 326 326 325 324 324 324 324 322 323 323 322 322 322 322
320 320 322 323 323 323 322 321 320 328 328 328 328 327 325 325 326 325 324 325 325 325 324 325 324 324 323 322 322 323 323 323
317 318 320 319 319 321 323 322 321 320 323 328 328 328 327 326 326 325 325 325 325 325 324 324 324 324 324 324 324 323 323 322

GFSFLT1_850_thetae_072.txt.gz
Theta_e
328 329 328 327 327 323 321 327 327 327 325 328 325 325 326 326 327 327 326 324 323 324 313 313 313 310 310 309 317 317 318 318
329 329 328 328 327 323 322 325 326 325 325 324 324 326 326 326 326 327 326 324 325 326 317 315 315 311 318 319 319 319 319 319
330 329 329 328 327 324 323 324 326 326 324 323 326 323 324 325 325 326 326 325 325 325 321 315 316 315 321 323 321 319 319 319
330 329 329 328 327 325 325 323 322 323 324 323 323 325 323 323 324 326 326 325 323 320 322 316 318 317 321 322 322 320 319 319
330 330 329 328 328 326 325 326 323 323 323 323 323 322 323 323 324 325 325 324 321 320 321 319 319 320 319 321 323 321 319 319
329 330 329 328 327 327 325 326 323 321 322 322 323 323 321 324 322 322 323 323 322 320 322 322 321 321 321 322 322 321 320 320
327 329 329 327 327 327 326 325 325 322 322 322 322 324 321 321 322 322 323 323 323 321 323 323 323 322 321 321 321 319 319 319
327 328 328 327 327 326 325 326 326 323 321 321 322 323 322 321 322 322 322 322 322 320 322 322 321 321 319 319 319 318 318 319
327 328 328 328 327 326 326 325 325 323 320 321 322 322 322 322 322 322 322 322 322 320 321 320 320 320 318 318 318 318 318 318
327 328 328 328 327 327 326 325 324 323 321 321 322 321 321 322 321 321 322 321 321 321 320 318 320 320 319 316 314 314 317 316
327 328 328 328 328 327 327 325 323 322 321 320 321 321 321 321 321 321 321 321 320 320 319 318 316 317 316 316 315 316 316 316
327 327 328 328 328 327 327 326 325 323 321 320 320 322 321 320 320 321 321 320 320 318 317 316 316 315 316 316 317 316 317 316
326 327 325 326 327 328 327 326 326 324 321 321 320 319 322 320 321 320 321 321 321 321 320 317 316 316 316 316 316 316 318 319
325 326 325 325 326 326 325 326 326 325 324 322 322 322 320 320 321 320 320 320 320 320 320 319 317 318 317 316 316 318 318 318
320 322 323 324 325 325 325 325 325 325 325 324 324 323 322 322 321 320 320 319 319 320 320 320 320 320 318 318 317 316 317 317
314 315 318 320 322 323 324 325 325 325 324 324 324 324 324 324 323 322 321 320 320 320 320 320 320 320 320 320 319 318 318 318
312 312 314 316 317 319 320 322 322 324 325 324 324 324 324 324 324 325 324 323 322 320 319 319 320 321 321 321 321 321 320 320
308 309 311 312 313 315 317 318 319 320 321 323 324 323 323 324 324 324 324 324 324 324 323 321 320 322 322 322 322 321 320 319
307 307 308 309 310 311 313 314 316 317 318 319 319 320 321 321 323 323 323 324 325 325 325 324 323 324 323 322 322 322 322 321

GFSFLT1_850_thetae_075.txt.gz
Theta_e
326 328 328 328 328 327 324 319 325 325 326 326 325 324 326 325 327 327 324 327 327 326 325 317 310 310 310 317 320 320 320 321
327 328 328 328 328 327 324 319 322 324 327 326 325 324 326 326 327 327 325 325 326 325 320 313 309 308 309 317 319 320 321 321
326 328 328 328 327 327 324 320 321 323 326 324 325 325 328 327 328 326 323 324 322 319 320 309 309 309 308 310 317 320 319 319
326 328 328 328 328 327 325 321 320 322 324 323 324 324 326 326 327 327 327 326 325 320 321 310 311 310 308 308 317 319 318 318
324 328 328 328 328 328 326 323 321 322 322 323 323 324 323 325 325 325 326 326 325 322 324 313 313 311 310 310 314 316 316 318
325 327 328 328 328 328 327 325 323 321 321 323 322 323 323 321 323 323 325 326 326 324 325 317 315 315 314 320 322 321 320 319
324 327 328 328 328 328 327 326 324 322 321 322 322 322 322 323 323 323 324 324 326 326 324 321 317 317 317 319 322 321 322 320
325 326 328 328 328 328 327 326 325 323 320 320 321 322 322 322 323 320 322 324 324 323 321 320 320 318 318 319 319 320 322 320
323 325 326 328 329 328 327 326 324 324 322 320 321 321 322 322 321 322 321 323 322 322 322 320 320 322 320 320 320 320 321 320
324 325 326 327 328 328 327 326 324 324 323 319 321 321 322 322 322 321 323 322 321 323 323 321 321 322 321 321 321 320 319 320
324 325 326 327 328 327 327 326 325 324 323 320 320 320 322 322 322 322 321 321 321 322 322 321 321 321 321 321 321 318 318 318
324 324 325 326 326 327 326 326 326 325 323 321 320 321 321 321 321 322 321 321 321 321 322 321 320 320 320 320 319 317 317 317
325 324 324 325 326 326 326 327 326 325 324 323 321 320 319 321 321 320 320 321 321 321 321 321 320 320 319 320 320 319 318 317
321 324 324 325 325 325 325 326 326 325 325 324 323 322 320 319 320 321 320 320 320 320 320 320 319 319 319 318 317 317 316 316
316 319 320 322 323 324 324 324 324 324 324 324 324 324 323 322 321 320 319 319 320 320 320 320 320 320 320 319 318 317 316 316
312 314 316 318 320 322 323 324 324 325 325 324 323 323 324 323 323 323 322 321 320 319 319 319 319 319 319 319 319 319 318 317
306 310 313 315 316 319 319 320 320 322 323 324 323 322 322 324 323 323 323 323 322 321 321 320 320 319 319 319 319 319 319 319
301 305 309 313 313 312 315 316 317 318 319 320 322 322 321 322 322 322 322 322 323 323 323 322 321 321 321 320 319 319 318 319
305 304 306 308 308 309 310 311 313 315 317 317 317 317 318 319 320 321 321 321 321 321 321 323 323 323 321 321 321 321 320 321

GFSFLT1_850_thetae_078.txt.gz
Theta_e
317 325 329 328 329 330 328 326 323 326 326 326 326 325 324 325 325 324 326 325 325 327 326 326 325 324 323 323 320 320 321 320
318 321 328 329 329 329 327 326 323 326 326 325 325 327 327 326 325 327 325 326 325 325 325 326 326 324 321 322 320 319 320 320
317 318 327 329 329 329 327 326 323 324 324 325 324 326 325 325 327 327 327 325 324 325 325 325 326 322 319 320 318 319 319 321
316 317 322 328 328 328 327 326 322 322 323 327 323 323 323 326 326 326 325 325 325 325 326 326 324 317 313 313 317 319 319 321
316 320 322 327 327 328 327 326 322 321 323 325 323 322 323 324 325 326 323 323 322 321 319 318 321 312 312 312 318 320 319 320
317 320 320 325 327 328 327 326 323 321 322 322 320 322 323 324 324 324 325 325 324 322 318 318 319 310 310 309 317 319 319 320
321 323 323 326 327 328 327 327 324 322 321 320 322 321 322 322 325 324 325 324 325 324 324 320 317 310 311 309 311 311 319 319
320 322 324 326 327 328 327 327 326 323 322 321 321 322 322 322 323 322 322 323 325 324 325 322 321 315 313 310 309 310 317 317
317 319 321 325 327 328 328 327 326 324 322 321 320 322 322 322 322 320 320 321 323 323 325 324 324 316 314 315 314 317 319 319
317 320 321 324 326 328 328 327 327 324 322 321 320 321 321 322 322 320 321 320 321 324 323 323 322 321 319 317 315 316 318 319
320 323 324 325 326 327 327 327 327 325 323 322 320 321 321 321 322 321 321 321 321 321 322 322 322 321 320 320 318 317 319 318
323 323 324 325 325 326 327 326 326 325 324 323 321 319 321 320 321 321 321 321 321 321 320 321 323 322 321 321 322 321 320 320
323 324 325 326 326 327 327 325 326 325 324 323 322 320 320 321 320 320 320 320 320 320 319 320 321 322 321 321 321 321 321 321
317 321 323 324 326 327 327 325 326 325 325 324 323 322 321 319 319 319 320 320 319 320 320 320 320 321 321 320 320 320 320 320
312 314 317 319 321 323 324 324 324 324 325 324 324 324 323 322 321 321 320 320 319 319 319 320 320 320 320 319 319 319 319 319
306 308 312 316 320 322 323 324 324 324 323 322 322 322 323 322 322 323 322 322 322 321 320 319 319 319 319 319 319 319 319 319
300 302 306 309 313 316 318 320 322 323 323 321 321 321 321 322 322 321 321 320 321 321 322 322 322 320 320 319 319 319 318 318
300 300 302 303 308 312 315 316 317 321 320 320 319 320 321 321 322 322 320 319 319 319 320 321 322 321 321 321 321 321 320 319
301 301 302 300 301 303 306 313 313 313 315 316 316 317 317 318 319 320 320 320 320 320 319 320 320 320 320 320 321 321 321 321

GFSFLT1_850_thetae_081.txt.gz
Theta_e
318 317 317 321 328 330 330 330 330 324 324 325 326 328 327 327 326 325 325 326 328 327 327 326 325 326 325 326 324 323 321 321
317 318 317 317 328 330 329 330 329 324 324 325 326 326 325 325 324 325 324 324 325 327 327 326 326 326 326 326 324 323 321 321
317 318 318 318 324 330 329 330 328 325 324 324 327 327 325 325 325 325 327 326 324 325 325 326 326 325 325 326 324 322 321 321
317 318 318 317 322 328 329 329 327 325 324 324 324 323 324 324 324 325 324 326 326 325 326 325 325 325 325 324 324 322 320 320
317 318 317 317 320 327 329 329 327 325 324 323 324 323 322 323 324 325 325 324 324 324 326 326 325 325 325 322 324 322 320 320
317 318 316 317 323 328 329 328 327 325 323 322 324 321 321 323 324 325 324 325 323 323 324 324 324 325 325 321 324 322 320 320
316 316 317 320 322 327 329 328 327 325 322 322 322 321 321 323 324 325 324 323 322 322 323 324 324 323 321 316 317 319 318 319
317 319 319 320 321 326 328 327 326 325 322 321 321 322 321 322 323 323 323 324 324 322 320 321 321 318 311 313 313 313 314 319
315 320 322 322 323 325 327 327 326 325 323 321 321 322 321 321 322 322 322 322 323 322 322 318 317 315 312 311 310 311 314 319
322 317 322 324 324 326 327 327 327 326 323 321 320 321 322 321 322 321 320 320 320 322 323 323 323 318 315 310 310 310 311 314
320 320 322 324 325 326 325 327 327 326 323 321 320 320 321 321 322 320 321 319 319 320 322 322 322 321 321 314 313 314 311 311
323 323 324 324 324 325 324 326 327 326 323 322 321 320 321 321 321 321 321 320 320 320 321 322 322 322 322 320 317 316 313 313
321 323 322 323 322 322 324 328 327 325 323 322 321 320 321 320 321 320 319 320 320 319 319 319 321 321 322 321 321 320 319 317
316 320 321 322 322 322 322 326 326 324 324 323 322 321 321 321 320 320 319 319 320 320 319 319 320 320 321 322 322 321 321 322
307 312 316 319 320 321 321 320 323 324 324 324 323 323 323 321 319 319 319 319 319 319 319 319 319 319 320 320 321 321 321 320
301 304 309 314 318 319 320 321 322 322 323 323 322 323 323 322 322 321 321 321 321 321 320 319 319 319 319 320 319 319 319 319
298 300 302 308 311 313 316 319 320 322 322 321 320 321 322 321 321 321 320 320 321 320 320 321 321 320 320 319 319 319 318 318
297 297 298 301 306 308 312 315 315 319 319 318 318 319 320 320 319 319 319 320 320 320 320 320 320 320 320 320 321 321 320 320
297 298 298 301 303 304 308 312 313 316 314 316 317 316 315 316 316 317 317 317 318 318 318 318 318 319 319 320 320 320 320 319

GFSFLT1_850_thetae_084.txt.gz
Theta_e
318 319 323 327 331 334 334 329 330 330 330 323 325 324 328 328 328 328 327 327 327 327 327 327 327 327 326 324 325 325 325 324
318 319 322 328 331 334 333 329 330 330 329 323 324 326 328 329 328 330 329 328 327 327 327 327 326 327 326 324 321 324 324 324
318 318 322 326 330 331 330 329 329 330 329 324 323 324 328 328 328 326 326 325 325 325 326 326 327 326 326 323 317 324 324 323
318 318 320 327 329 329 325 328 330 330 327 323 324 324 325 325 325 324 325 325 325 325 324 325 326 326 325 324 324 324 324 323
318 318 319 325 328 331 325 329 329 330 327 324 324 324 324 325 325 324 326 324 325 325 326 324 325 325 326 325 325 324 323 323
319 319 318 325 329 331 327 329 329 329 327 326 325 324 324 325 323 325 325 324 324 324 324 326 325 326 325 325 325 324 323 322
321 320 320 324 329 332 328 329 329 328 326 327 325 324 323 323 323 326 325 324 323 323 324 324 325 324 325 324 325 324 323 323
325 323 324 326 330 330 328 329 329 327 326 327 323 324 323 322 324 325 325 324 323 323 323 322 324 324 325 325 324 322 323 322
326 323 326 327 330 330 329 329 328 327 327 324 321 325 322 322 323 324 324 324 324 323 322 323 324 324 324 323 318 318 323 323
326 323 327 327 329 328 330 328 328 327 324 321 321 324 323 322 322 323 323 323 323 323 323 322 320 323 322 320 316 310 311 318
322 325 327 328 328 326 327 328 326 326 324 321 320 322 323 323 323 322 322 321 320 321 323 322 322 318 319 319 314 312 312 312
317 326 326 327 325 325 326 327 324 326 324 321 320 321 322 322 321 322 321 320 320 321 322 323 322 321 318 317 313 315 311 311
311 322 325 324 323 323 323 325 325 325 323 321 320 320 321 322 320 323 321 320 320 321 321 322 322 322 321 320 318 315 314 311
307 313 322 322 323 322 322 324 324 324 322 322 320 319 320 321 324 320 320 320 320 319 320 320 320 321 321 322 322 321 321 317
302 306 314 318 321 321 322 322 322 323 323 321 321 321 321 321 321 320 319 319 319 319 319 319 319 319 320 321 321 321 321 320
299 300 305 310 315 319 320 320 320 321 320 320 319 319 319 319 321 320 319 319 319 319 319 318 318 319 320 320 320 320 321 321
297 296 300 305 309 313 316 317 320 320 320 320 320 320 320 320 320 320 320 320 320 320 320 319 319 319 319 319 320 320 320 319
296 294 295 298 303 305 309 311 313 317 319 318 318 319 319 320 320 320 320 320 320 320 320 320 320 319 319 320 320 319 319 318
298 295 295 296 299 300 303 307 309 310 312 315 315 315 315 315 317 317 317 317 317 317 317 317 318 318 319 319 319 319 318 318

GFSFLT1_850_thetae_087.txt.gz
Theta_e
320 318 318 320 323 328 335 341 338 337 338 334 331 327 324 329 327 328 329 329 329 330 330 328 326 327 327 327 323 323 324 324
320 319 319 321 326 331 336 340 337 338 335 330 330 325 326 327 326 328 328 328 328 329 328 328 328 328 327 327 326 323 326 324
320 320 319 323 328 333 336 339 337 337 331 332 330 327 329 327 328 328 328 328 328 329 327 327 328 328 327 327 325 324 323 323
320 320 319 323 328 332 336 337 337 336 333 333 331 329 327 326 328 328 328 328 328 327 326 326 328 328 327 327 325 323 322 323
320 320 319 321 328 331 334 336 336 336 334 332 330 329 327 327 327 330 328 327 327 326 326 326 326 326 327 326 325 323 320 323
319 320 320 319 324 330 334 335 335 335 334 332 330 329 327 327 328 327 326 325 325 325 325 325 325 325 325 324 325 322 319 323
322 322 321 320 322 330 335 334 334 333 333 332 331 329 327 327 327 327 325 325 324 325 324 324 325 325 325 326 326 319 323 323
328 326 323 321 324 331 335 333 334 332 332 332 330 328 326 326 326 325 325 325 323 323 322 324 324 324 324 326 326 322 324 323
324 329 326 325 325 331 334 332 332 331 332 332 330 327 326 325 325 325 325 324 324 323 322 323 322 324 324 324 325 323 324 324
321 324 326 328 329 333 332 329 330 330 332 331 328 326 325 325 326 325 326 324 324 324 323 322 322 322 323 323 323 324 323 324
319 321 327 329 332 330 330 328 330 331 332 329 325 325 325 326 325 324 324 324 324 323 323 322 322 322 322 322 323 322 318 316
317 321 326 329 328 328 327 326 326 330 329 325 323 325 324 323 323 323 323 323 322 322 322 322 322 321 322 322 321 320 319 318
314 315 321 326 326 326 327 328 326 326 327 323 321 326 324 323 323 322 322 322 321 321 322 322 323 322 322 320 321 321 320 319
312 312 314 318 324 325 326 325 325 324 325 326 321 323 321 324 323 323 323 322 320 321 321 323 323 322 321 320 318 318 318 317
306 307 307 311 315 323 324 324 324 322 322 322 321 321 321 322 322 322 321 320 320 320 321 321 321 321 322 321 321 320 319 317
301 304 303 306 307 318 321 322 322 322 321 321 320 319 319 320 320 321 320 319 319 320 320 319 319 320 320 321 321 320 321 321
298 301 301 302 303 308 314 318 320 320 321 320 320 320 319 320 320 321 322 320 320 320 320 319 320 319 319 320 320 320 321 321
296 297 299 298 299 301 307 311 312 317 319 318 319 319 319 319 319 320 321 320 320 320 320 320 320 319 319 319 320 320 320 320
294 296 297 296 297 298 300 304 306 310 314 314 313 316 317 317 318 318 318 318 318 319 319 319 318 318 319 319 319 319 319 319

GFSFLT1_850_thetae_090.txt.gz
Theta_e
319 319 320 319 318 321 333 337 335 339 338 339 338 336 330 325 332 330 329 329 331 330 330 330 329 328 327 327 325 326 325 326
319 320 320 320 319 320 331 335 334 339 337 339 337 334 329 326 324 324 326 329 329 329 328 329 329 328 327 327 324 325 325 326
319 320 320 320 319 321 331 332 334 338 336 339 334 331 329 326 322 323 329 328 328 328 327 329 330 329 327 327 325 324 324 324
319 320 320 320 319 325 334 334 337 338 337 338 333 332 331 329 326 325 328 328 328 327 327 328 327 327 327 326 327 324 322 322
319 320 321 320 323 326 333 337 339 337 338 335 333 331 330 327 325 325 326 328 328 327 327 327 327 327 328 328 327 326 323 324
319 319 321 321 323 326 329 338 339 338 338 335 334 331 330 328 325 327 327 328 328 327 328 327 326 326 326 327 326 326 323 322
327 327 322 320 323 325 330 336 338 338 337 335 333 331 329 328 327 326 327 326 326 325 325 325 325 326 325 325 325 325 325 321
324 326 329 327 323 329 331 335 337 336 335 334 333 331 329 328 326 327 325 327 325 324 324 324 324 324 325 325 323 324 324 321
323 324 326 327 327 332 335 336 335 335 334 333 332 331 329 327 327 327 326 325 324 323 323 323 323 324 324 325 325 325 324 321
319 320 325 328 329 333 335 335 334 335 333 332 332 330 328 327 326 326 325 325 325 325 325 323 323 322 323 324 324 324 325 323
314 318 326 331 332 331 331 333 332 332 332 333 331 329 326 326 325 325 325 326 324 324 324 324 322 322 322 323 323 324 324 322
311 319 325 328 329 330 332 331 330 329 331 333 330 327 326 324 325 325 325 324 324 323 323 323 322 322 322 322 322 323 323 324
310 314 319 325 327 327 325 327 329 329 331 330 327 325 324 325 324 324 323 324 323 322 322 322 322 321 322 322 322 323 323 323
304 309 312 318 323 324 326 327 327 329 327 326 326 323 323 323 322 323 322 322 321 321 322 321 323 322 322 321 322 321 321 320
301 304 307 309 315 321 324 325 326 327 325 324 322 323 322 322 322 322 322 322 321 322 321 321 323 322 321 321 320 318 319 319
298 299 302 304 308 314 318 321 324 324 323 322 322 322 322 321 321 323 322 321 320 320 321 321 321 321 321 321 320 319 320 319
294 296 299 301 302 305 310 314 319 322 322 321 321 321 321 321 321 321 321 320 319 320 320 319 320 320 320 320 320 320 320 319
293 293 295 297 300 302 305 306 310 316 319 319 320 319 319 319 320 321 320 319 319 319 319 320 320 319 319 319 320 320 319 320
291 293 294 295 298 301 300 302 304 307 310 311 316 318 318 318 318 319 319 319 319 319 318 318 318 318 318 319 319 319 319 318

GFSFLT1_850_thetae_093.txt.gz
Theta_e
318 318 318 318 318 318 319 329 337 339 340 337 333 332 332 329 327 322 325 325 329 331 331 331 331 331 330 329 328 327 325 324
314 316 318 319 319 319 319 327 337 339 340 337 333 333 336 332 327 323 324 325 327 330 330 330 329 330 329 328 327 326 325 325
315 316 317 319 320 319 321 326 338 338 338 336 334 334 335 332 328 326 330 325 327 327 330 329 328 329 329 328 327 326 325 325
316 316 317 319 320 320 323 326 338 336 338 337 338 337 335 332 329 325 327 324 327 327 327 326 326 326 328 328 327 326 325 325
320 317 319 320 320 320 323 327 338 336 338 336 335 334 336 331 328 326 322 326 330 327 326 325 326 326 328 328 328 327 325 326
326 326 324 321 320 322 327 334 336 334 336 336 335 335 334 330 329 327 324 326 326 326 327 326 327 328 328 327 326 327 324 323
324 325 327 325 323 332 334 336 334 334 335 336 334 335 332 331 328 326 326 326 326 326 325 325 326 326 327 326 325 327 326 323
321 322 326 326 325 329 334 336 336 334 336 336 333 334 333 330 327 328 326 325 326 326 328 326 327 326 325 326 326 327 326 326
319 321 324 326 327 325 333 330 333 334 336 335 334 333 332 329 328 327 325 324 324 326 324 324 323 324 326 326 326 325 324 326
316 321 324 329 330 333 333 331 332 330 331 334 334 332 331 329 328 327 324 324 325 324 323 323 322 322 323 324 325 325 324 324
314 317 321 324 329 332 331 332 333 330 330 332 332 331 330 328 327 326 325 324 324 324 325 324 323 323 322 324 324 324 324 324
311 314 317 321 325 328 329 329 325 328 328 331 330 330 329 328 326 324 325 325 325 323 323 323 323 322 322 322 323 323 324 324
306 310 314 317 322 325 328 329 330 328 328 331 333 330 328 326 323 324 324 324 323 322 322 322 322 321 322 321 322 323 323 322
303 307 309 310 315 319 324 324 328 328 330 331 329 327 326 324 323 324 323 323 322 321 321 321 322 322 322 322 321 322 322 322
298 301 304 306 308 315 319 323 326 327 329 327 326 325 323 323 323 323 322 322 321 321 321 321 322 322 322 322 321 321 322 321
294 296 298 303 305 308 313 318 323 324 324 325 324 323 323 322 321 322 322 321 320 322 320 320 322 322 321 321 320 320 320 320
293 294 296 298 301 303 307 310 318 322 323 323 324 323 323 322 322 323 322 322 320 320 322 322 319 320 320 321 320 319 318 318
292 292 293 295 298 299 304 304 308 316 317 319 321 322 321 321 321 322 322 321 320 320 319 319 319 320 320 320 320 320 319 319
292 292 293 295 296 298 300 303 304 308 309 312 313 317 317 319 320 320 320 319 318 319 319 318 319 319 319 319 319 319 320 319

GFSFLT1_850_thetae_096.txt.gz
Theta_e
315 315 316 316 316 317 317 318 319 326 332 337 336 332 332 335 333 328 328 327 325 330 331 332 332 331 330 329 329 328 327 326
314 314 314 316 315 317 317 318 320 324 334 335 337 335 334 337 333 328 328 326 325 329 329 331 332 331 330 330 329 329 327 326
314 314 315 315 317 316 317 318 319 321 327 330 333 337 336 334 329 328 326 326 325 327 327 330 330 330 330 330 329 328 328 327
316 313 315 316 315 317 317 318 318 320 321 333 333 335 334 334 333 330 325 326 323 328 328 328 329 329 328 329 329 328 327 325
321 317 314 315 316 317 317 319 319 320 324 332 330 335 334 332 333 330 327 330 333 330 329 328 329 327 326 327 327 327 327 326
321 324 324 323 320 318 319 320 321 323 326 330 330 336 334 332 333 330 328 326 330 331 328 328 327 326 326 326 326 326 326 326
319 319 323 325 325 325 325 322 323 325 331 333 336 334 334 334 333 331 328 325 323 330 329 327 325 325 325 326 326 326 325 325
319 321 322 326 327 330 335 332 332 329 334 334 335 334 335 335 334 330 328 324 324 324 323 324 325 325 325 326 326 327 326 325
318 317 320 325 328 328 335 334 331 331 333 333 332 335 336 335 331 329 327 324 324 323 325 325 324 325 325 324 325 325 325 325
309 316 318 320 324 329 330 334 330 330 330 330 331 332 334 332 331 329 327 326 324 324 324 325 324 325 324 326 323 323 326 323
308 312 315 318 321 326 330 331 330 330 331 329 329 332 333 332 331 328 327 326 325 325 324 323 322 322 322 322 322 324 325 324
302 306 312 315 319 323 326 330 331 329 330 330 329 330 332 330 329 328 327 326 323 323 323 324 323 323 322 321 323 323 324 325
301 303 307 313 316 322 324 327 325 321 320 327 327 329 330 328 327 327 326 324 324 324 323 322 322 322 322 322 322 323 323 324
299 302 303 307 310 314 320 324 326 326 325 325 326 329 329 328 326 323 322 323 323 322 321 321 321 322 321 321 321 321 322 322
295 298 299 302 306 308 312 317 323 326 327 328 329 329 327 325 323 323 324 323 323 322 320 320 321 322 321 321 321 321 322 322
293 294 296 298 303 306 308 311 316 323 325 327 326 325 324 323 323 323 323 323 322 321 320 320 321 322 322 322 321 321 321 321
292 293 295 296 298 301 304 307 310 315 322 324 323 324 323 323 322 322 322 322 321 320 320 319 320 321 321 320 320 320 320 320
292 292 293 294 296 298 301 303 305 308 315 318 321 323 323 322 322 322 322 322 321 320 319 321 320 320 320 320 320 320 319 318
291 293 293 294 295 298 299 300 303 304 305 306 312 317 320 319 320 321 321 321 321 320 320 319 319 318 319 320 319 319 319 318

GFSFLT1_850_thetae_099.txt.gz
Theta_e
313 313 313 313 314 314 315 314 316 319 325 329 333 337 336 329 328 329 328 327 328 329 328 331 332 332 331 330 331 330 328 328
313 313 313 314 314 314 314 315 315 318 322 326 332 335 337 332 330 331 331 328 328 330 328 330 331 331 331 330 330 329 328 329
313 314 314 316 316 315 314 315 316 317 319 320 324 328 334 335 333 334 334 331 328 329 328 329 330 330 332 331 330 329 328 328
321 319 317 316 313 313 314 314 315 316 318 321 326 331 336 334 335 332 333 334 329 327 325 331 330 330 331 331 330 329 328 328
318 320 321 318 316 316 315 315 315 316 319 321 321 323 331 330 330 331 335 331 328 324 325 332 329 330 330 330 329 329 329 328
316 319 320 323 324 321 318 315 317 316 318 321 321 326 328 326 330 331 333 331 327 326 323 329 328 328 329 328 327 328 327 327
314 318 319 322 326 325 325 319 318 318 320 321 324 322 330 331 330 330 332 331 327 325 331 329 327 329 328 326 325 326 326 326
311 318 316 320 324 326 331 325 323 322 323 326 327 327 329 330 329 333 332 331 328 326 329 327 327 329 326 325 324 325 326 326
304 315 310 320 321 323 327 333 336 331 326 327 330 330 332 334 333 331 332 331 328 325 323 326 326 327 326 325 325 325 325 325
301 307 311 316 319 320 324 332 337 333 330 330 330 329 330 332 331 332 333 330 327 323 323 322 324 324 324 325 324 324 323 324
299 301 307 313 314 319 323 328 334 333 331 329 329 329 329 329 330 333 331 329 325 324 323 324 324 324 325 324 323 323 322 323
297 299 302 307 311 317 320 325 327 330 330 328 328 328 329 328 329 331 329 327 326 325 324 324 324 323 323 322 322 322 321 324
295 296 300 305 310 316 319 323 324 323 324 327 328 328 327 328 329 330 327 327 326 324 323 324 323 323 323 322 321 322 323 323
294 295 298 301 304 310 317 320 324 323 321 320 322 324 321 328 329 327 327 326 325 323 323 322 322 321 321 321 321 321 322 322
293 294 295 297 301 304 309 316 319 324 327 324 323 323 325 328 327 326 323 323 323 322 321 320 320 320 321 321 321 321 321 321
291 291 293 295 299 301 304 310 313 317 323 325 325 325 323 327 325 323 323 323 323 322 321 319 319 321 321 322 321 320 321 321
290 291 292 293 296 298 301 304 307 310 316 320 321 324 325 325 324 324 324 323 324 322 320 319 319 319 320 321 320 320 320 320
290 291 291 292 294 295 298 300 303 305 306 305 310 317 321 324 324 324 324 322 322 322 321 320 319 318 320 321 320 319 319 319
290 291 292 293 294 295 297 299 302 303 304 303 303 303 310 316 321 321 321 321 321 321 321 319 319 319 319 319 320 319 318 317

GFSFLT1_850_thetae_102.txt.gz
Theta_e
312 312 312 312 312 313 313 313 314 315 315 323 333 333 332 336 334 327 323 323 324 323 326 326 329 331 331 332 332 331 330 329
311 312 313 313 313 313 313 314 313 314 314 322 330 334 328 329 335 333 326 324 326 326 327 326 329 331 331 332 332 330 331 329
316 317 318 318 317 315 314 315 313 313 314 316 317 323 328 324 332 334 332 326 328 328 328 327 327 331 330 333 333 330 329 329
317 319 319 321 320 317 316 313 312 313 314 316 323 327 331 333 330 335 334 329 330 331 329 329 329 333 331 333 334 333 329 328
313 315 317 318 320 324 320 316 313 312 314 317 320 322 323 322 323 330 334 333 332 334 331 330 330 332 331 331 333 332 330 327
312 313 314 316 319 320 325 322 318 314 315 316 316 318 322 322 321 323 333 331 330 335 334 331 329 327 329 330 331 332 329 328
310 311 313 315 318 319 320 325 324 318 325 317 318 317 319 325 328 326 332 332 331 332 332 329 326 326 330 332 331 330 328 328
307 309 309 312 315 319 320 322 326 323 323 325 318 322 322 323 324 325 331 331 331 332 331 328 326 324 327 325 329 330 326 327
305 306 306 305 309 314 321 321 324 327 328 330 329 330 326 326 329 332 331 330 328 328 331 327 325 326 326 326 325 329 325 325
302 305 304 302 308 313 318 320 324 331 334 337 336 336 330 330 328 330 331 331 331 330 330 327 328 324 326 325 329 327 325 325
301 301 302 302 304 311 316 319 323 329 333 335 336 331 334 331 330 332 331 330 329 330 328 326 323 324 324 326 325 325 326 325
296 299 301 301 303 307 311 314 318 326 331 330 334 333 330 329 331 331 329 328 328 330 326 323 323 322 322 322 323 323 323 323
295 296 298 300 302 305 308 312 319 322 327 326 327 327 327 327 327 327 327 327 328 326 324 323 323 323 323 323 323 323 322 321
293 294 295 296 299 302 305 310 314 320 322 324 326 326 323 323 326 326 328 327 326 326 325 323 323 323 322 322 322 321 321 320
292 292 292 294 297 299 302 305 309 314 321 321 323 323 324 324 325 323 328 327 327 325 322 323 322 320 320 320 319 320 320 321
291 291 291 292 295 298 300 302 305 309 315 321 324 326 324 324 323 323 326 325 323 323 323 320 319 318 319 321 320 320 320 321
291 291 291 291 293 295 297 300 302 305 308 314 315 321 323 324 323 325 323 322 323 323 321 320 319 318 320 320 321 320 319 319
290 291 291 292 292 293 295 297 300 302 305 306 309 310 312 320 322 323 323 323 324 322 321 320 319 318 318 320 319 320 319 319
290 291 292 293 293 294 295 297 297 300 302 304 305 304 305 305 306 312 318 320 319 320 320 320 319 318 319 319 320 319 319 319

GFSFLT1_850_thetae_105.txt.gz
Theta_e
309 311 312 312 313 313 312 313 312 312 312 313 314 326 331 334 332 333 333 323 322 323 323 323 325 326 329 330 331 331 333 332
315 316 317 316 315 314 314 313 313 313 312 312 313 315 318 332 333 333 334 332 324 323 323 323 323 324 328 328 330 331 331 331
319 319 318 319 320 320 319 315 313 313 313 312 313 314 319 319 330 333 333 334 327 325 323 323 323 324 327 329 330 331 331 329
315 318 318 318 318 319 321 322 318 314 312 315 323 326 332 335 333 332 332 330 332 326 324 325 325 326 328 328 329 332 329 328
311 313 315 316 318 318 318 319 323 321 316 317 329 327 331 331 324 325 326 328 333 329 327 327 327 328 328 328 328 327 328 328
306 309 311 313 314 317 318 319 320 323 321 316 327 331 328 326 330 325 326 324 330 332 328 330 331 329 328 333 330 327 328 328
304 306 308 310 312 314 316 318 319 319 324 323 320 330 330 331 331 325 324 322 326 333 331 332 331 332 331 332 329 328 327 327
302 301 302 305 309 312 313 316 319 320 320 326 321 327 334 331 331 328 324 323 322 333 332 326 325 332 332 330 326 328 327 327
300 299 299 298 306 310 310 314 318 319 323 326 323 325 332 333 330 331 328 326 321 328 332 328 327 331 331 327 325 325 327 326
297 297 297 297 305 308 306 310 316 319 322 328 327 327 330 333 332 331 331 330 330 331 331 328 330 331 328 324 325 326 325 325
296 296 294 297 304 305 305 308 310 316 322 329 333 330 330 331 332 330 331 331 331 331 329 328 329 329 325 326 326 325 325 324
295 294 294 299 302 303 304 308 312 319 324 327 327 331 331 332 331 332 332 329 331 330 329 328 329 326 326 325 325 323 323 324
294 293 295 299 299 300 302 305 309 315 319 323 323 327 328 329 330 331 331 330 330 330 328 329 328 325 323 324 324 322 322 322
293 292 294 295 296 297 300 302 307 313 319 322 323 326 327 325 327 328 329 328 328 329 328 328 324 323 322 322 323 324 323 323
292 291 292 293 294 296 299 302 303 306 311 319 322 323 324 323 322 323 325 326 326 327 325 324 323 322 322 322 322 322 320 321
291 291 291 292 293 296 298 300 303 305 309 314 318 322 323 324 324 323 323 325 326 326 325 324 323 323 322 320 320 319 320 320
291 291 291 291 292 293 295 297 299 302 304 306 309 314 318 322 323 323 322 324 325 323 322 322 321 320 318 318 319 319 319 320
290 290 291 291 291 293 294 295 297 299 301 304 305 308 309 311 314 315 312 320 321 322 322 320 319 318 318 319 320 320 319 318
289 290 291 292 293 294 293 295 297 297 299 300 302 304 304 305 305 307 313 313 313 319 320 320 319 318 318 320 319 319 319 318

GFSFLT1_850_thetae_111.txt.gz
Theta_e
317 320 320 320 321 322 322 323 323 325 319 321 330 333 335 338 339 340 340 340 341 339 339 335 331 323 325 337 337 339 337 335
320 320 320 321 321 321 321 321 321 322 323 323 320 329 332 334 336 338 340 340 340 338 338 333 327 324 323 325 335 334 335 334
319 318 318 318 318 318 318 318 319 320 321 323 324 321 327 329 333 335 336 340 339 337 334 330 329 325 323 324 331 335 335 335
317 316 316 315 315 315 315 315 316 316 318 319 322 323 322 329 331 332 333 336 337 334 334 332 333 328 324 324 327 331 335 335
315 315 314 313 313 313 313 313 313 313 314 316 319 321 324 321 327 330 332 334 337 335 334 332 335 332 328 324 327 331 332 330
314 313 312 311 311 311 310 310 310 310 311 313 314 316 319 324 324 331 331 332 333 332 337 335 336 334 332 328 327 331 330 329
313 311 310 310 309 309 308 307 307 308 310 312 313 313 314 317 322 326 334 332 334 333 333 336 336 336 333 331 328 327 326 330
311 310 309 308 307 306 306 305 306 309 310 311 313 313 313 314 316 321 329 333 332 333 332 332 335 337 335 333 331 332 329 332
309 308 307 306 304 304 303 303 307 309 310 310 312 315 315 315 317 318 324 331 332 334 331 332 337 338 338 335 333 331 328 332
307 306 305 304 303 302 300 298 303 304 307 309 310 313 314 315 317 319 321 327 332 335 332 333 334 335 336 335 334 333 332 332
306 305 304 302 301 300 298 297 300 303 305 307 310 313 314 317 319 321 322 327 330 333 334 333 331 334 335 333 334 333 333 333
304 303 302 301 298 297 296 299 300 302 304 307 310 311 313 317 324 326 326 329 330 332 332 332 331 333 333 334 336 335 333 331
303 302 300 298 296 295 293 295 297 301 302 304 307 308 314 321 323 323 327 328 331 330 332 332 331 329 331 334 335 334 330 330
301 300 298 296 295 293 291 292 297 300 302 302 302 306 317 323 323 320 322 328 328 327 331 330 330 331 331 334 332 327 325 321
298 298 297 295 293 291 291 294 295 296 298 299 300 307 312 317 321 323 324 326 327 328 329 328 329 331 330 331 331 328 323 321
296 295 294 293 291 290 292 294 294 294 295 298 301 304 306 311 315 320 323 324 325 326 327 327 329 329 330 329 330 328 326 325
293 292 291 290 291 290 290 291 293 293 293 295 296 300 303 304 309 315 320 322 323 323 326 327 327 328 328 327 326 326 324 325
290 290 290 290 290 289 289 289 291 292 293 294 296 297 301 301 302 306 305 312 317 320 321 323 325 324 325 324 324 323 322 321
289 289 289 290 289 290 289 289 290 292 293 292 292 293 296 298 300 301 300 302 304 305 305 307 312 312 321 322 322 323 322 320

GFSFLT1_850_thetae_114.txt.gz
Theta_e
319 320 321 322 322 322 323 323 323 323 320 321 330 334 335 337 339 339 339 339 337 341 339 335 336 334 337 340 340 336 338 336
321 321 321 321 321 321 320 320 321 321 320 321 324 321 327 333 337 339 340 340 340 339 339 339 337 335 328 335 339 339 335 336
320 319 318 318 317 317 316 316 317 318 319 321 321 322 320 324 332 336 335 338 340 340 340 341 339 337 332 328 338 337 334 334
319 317 317 316 315 315 314 314 314 314 314 315 317 320 321 318 322 329 334 337 337 339 339 340 339 339 336 331 331 333 329 333
317 316 315 314 313 312 312 312 311 311 312 312 313 315 317 319 323 324 328 333 331 334 335 339 338 338 337 333 333 328 329 331
315 314 312 312 311 310 310 309 309 309 310 311 312 313 314 314 317 320 323 328 332 331 334 335 339 336 336 335 334 333 329 328
314 312 311 310 309 307 307 306 306 307 308 310 311 311 313 315 316 315 318 320 329 334 333 331 330 333 334 337 335 335 332 328
311 310 309 308 307 305 305 304 304 304 305 307 309 311 312 313 314 315 316 317 320 329 332 331 331 332 330 333 335 335 334 332
309 308 307 306 305 304 303 302 303 305 305 307 308 309 310 311 313 313 314 317 317 321 329 331 333 334 331 331 333 334 335 333
307 306 305 304 303 301 300 299 300 302 304 305 307 308 309 309 310 311 315 316 317 318 325 330 329 334 333 329 330 333 333 334
305 304 303 302 300 298 297 296 296 299 300 302 303 305 306 307 309 312 315 317 319 318 319 330 331 333 333 329 332 332 331 333
304 303 302 300 298 296 295 295 296 297 298 299 300 301 304 306 307 313 316 317 320 319 318 327 330 332 332 332 332 331 331 331
302 301 300 298 296 294 294 295 295 296 298 298 299 301 304 306 310 316 319 323 326 326 322 326 330 328 330 330 330 331 331 330
300 299 298 296 294 292 293 292 293 296 296 297 299 301 305 306 309 314 319 321 323 325 327 329 329 327 327 330 329 330 330 331
298 296 295 293 291 291 291 290 291 293 294 295 297 299 299 303 308 310 313 318 319 319 320 326 327 328 330 329 329 329 330 330
295 294 292 291 290 291 290 289 290 291 292 293 295 297 299 302 304 308 313 314 315 317 322 326 327 326 328 328 328 328 329 330
293 291 290 290 290 289 289 289 289 289 290 290 293 296 298 299 301 305 306 313 316 319 325 325 327 327 326 327 327 329 330 329
290 289 289 290 290 289 289 288 289 289 289 291 291 292 294 296 298 301 302 303 307 307 313 317 320 323 327 328 328 328 327 326
289 289 289 290 290 290 289 289 290 289 289 290 291 291 291 293 295 296 297 300 302 300 302 306 311 312 316 324 323 325 324 324

GFSFLT1_850_thetae_117.txt.gz
Theta_e
318 320 321 321 320 320 318 317 317 317 317 318 323 335 337 333 335 337 337 338 339 338 336 338 341 340 339 338 338 339 338 336
321 321 321 320 320 319 319 318 317 317 318 315 314 317 322 334 331 335 335 336 337 339 338 336 335 336 338 340 338 337 339 337
320 319 319 317 316 316 315 315 315 315 315 317 318 317 316 319 323 328 333 335 337 336 338 339 336 335 334 336 339 336 337 337
317 316 315 314 314 313 313 312 312 311 311 311 312 313 316 318 316 322 326 331 332 336 335 334 335 336 334 333 333 334 334 337
314 313 312 312 311 311 311 310 310 310 310 310 310 311 311 312 312 316 317 322 326 332 335 335 334 334 333 330 329 334 332 329
312 311 310 310 310 310 309 308 308 308 308 309 310 310 311 311 312 313 312 316 318 327 330 331 332 334 333 331 330 330 332 330
309 309 308 308 307 306 306 306 305 305 306 307 308 309 310 311 312 312 313 313 313 317 322 325 332 332 330 331 329 330 331 334
307 307 306 305 304 304 303 304 305 305 305 306 307 308 308 309 310 312 313 314 314 314 314 317 322 332 332 330 330 329 328 331
305 305 304 303 303 302 302 303 303 304 304 305 306 307 307 308 309 309 311 313 314 315 315 315 316 323 332 331 329 329 330 331
304 304 303 302 301 300 300 300 301 302 303 304 305 306 306 306 308 309 310 311 313 315 316 317 316 316 328 331 331 329 329 329
302 301 300 299 298 298 299 299 299 300 301 303 304 303 305 305 306 307 307 307 309 315 317 318 318 317 324 329 328 323 325 328
301 299 298 298 297 297 297 297 297 297 298 300 301 302 303 303 304 305 306 308 310 314 318 317 318 319 317 328 328 323 324 328
299 298 297 297 297 297 296 295 295 294 295 296 297 298 299 300 301 303 306 309 313 316 317 317 320 320 317 328 328 328 327 327
296 295 294 294 295 294 293 292 292 292 292 293 294 296 298 299 300 301 303 307 312 315 318 319 322 323 318 324 330 326 327 328
294 293 292 291 292 292 291 291 290 290 290 290 291 293 295 297 298 301 303 304 306 310 315 318 319 324 323 323 324 325 325 328
292 291 290 291 291 291 290 290 290 290 289 290 290 291 292 295 296 298 299 301 301 304 312 313 317 319 322 325 325 324 326 328
290 289 289 291 291 290 289 290 290 290 289 289 289 289 289 290 293 297 299 299 299 303 305 300 309 315 321 323 325 325 327 328
288 288 289 290 289 290 291 291 291 291 290 289 289 289 289 290 292 293 294 293 295 299 301 297 303 307 320 322 318 325 326 327
288 289 290 290 290 291 292 292 291 292 291 290 290 289 290 292 292 292 292 292 293 294 298 299 299 301 303 312 316 321 324 318

GFSFLT1_850_thetae_120.txt.gz
Theta_e
319 320 321 321 320 320 319 319 318 317 316 316 317 322 331 333 331 329 332 336 330 326 334 336 335 336 340 341 340 340 339 338
321 321 321 320 320 319 318 317 315 314 314 313 313 313 315 320 329 330 325 330 335 336 335 331 336 334 334 334 337 338 336 337
317 318 318 317 316 315 314 313 313 313 313 312 312 313 315 316 315 317 324 325 328 332 334 335 333 330 333 334 333 334 333 331
314 314 313 313 313 312 312 311 311 311 311 311 311 311 311 311 312 314 316 317 323 325 327 330 333 335 330 325 332 333 333 332
311 310 311 311 309 310 310 310 309 309 309 309 310 310 310 310 311 311 311 312 315 317 319 323 328 333 333 333 333 330 332 329
308 308 308 308 308 307 306 305 305 305 306 306 306 308 308 309 310 310 311 311 311 311 313 315 318 324 329 333 333 333 332 328
305 305 306 304 303 302 302 302 303 304 305 305 306 306 307 308 308 309 310 311 311 311 312 312 313 316 321 328 332 331 332 331
305 304 303 302 301 300 301 303 303 304 305 305 306 306 307 307 308 309 310 310 311 311 312 313 313 313 314 318 327 331 331 331
303 302 301 299 299 300 301 302 303 304 304 305 305 305 305 306 306 308 309 310 311 312 313 313 313 314 314 314 316 330 332 331
302 301 300 299 299 300 301 302 303 303 302 302 303 304 304 305 305 305 307 309 311 312 313 314 313 314 314 315 315 320 330 330
301 301 299 297 297 297 297 298 299 299 299 299 300 301 302 302 303 305 305 306 308 309 311 312 313 314 316 317 317 316 327 330
297 297 296 295 295 298 298 297 296 296 296 297 297 299 300 300 301 302 303 305 307 309 310 313 315 316 317 317 318 318 321 328
297 295 295 295 295 296 294 293 292 292 293 294 295 296 297 298 299 301 302 304 306 308 311 312 315 317 318 318 318 320 318 327
294 294 294 294 292 291 291 291 292 292 292 292 292 293 294 295 296 298 300 301 302 303 305 309 311 313 317 318 319 320 318 325
291 290 289 290 291 291 291 291 291 291 291 291 290 290 290 290 292 294 296 297 299 299 300 303 306 311 314 317 319 319 317 323
290 289 289 291 291 291 292 292 291 291 291 290 289 289 289 289 290 292 293 294 295 296 297 299 303 308 313 318 320 320 319 322
288 287 290 290 291 292 292 293 293 292 291 290 290 290 289 289 290 290 291 292 294 293 294 295 298 305 309 315 319 323 323 322
287 290 290 291 291 292 292 292 292 292 293 292 292 292 290 289 289 289 290 290 291 290 291 294 295 297 301 307 319 320 319 321
288 289 290 290 291 292 290 288 288 290 292 293 293 292 291 290 290 289 289 289 290 290 291 291 293 295 297 300 311 314 311 315

GFSFLT1_850_thetae_123.txt.gz
Theta_e
320 321 321 321 320 320 320 320 319 318 318 318 318 319 324 329 328 326 328 328 329 331 330 328 327 324 334 335 334 334 334 334
318 316 316 316 318 318 318 317 317 316 315 314 313 313 314 315 317 319 321 324 323 327 332 329 326 325 329 331 331 333 334 333
315 314 314 313 312 312 312 312 312 312 312 312 312 312 312 312 312 312 313 315 317 321 324 329 328 326 326 324 333 328 332 330
308 308 309 310 309 308 308 307 307 308 309 309 309 310 310 310 310 311 311 311 311 312 314 317 321 324 330 330 330 329 331 332
305 305 306 306 305 305 304 303 303 304 305 305 306 306 306 306 307 307 308 309 310 310 311 311 314 318 322 327 330 331 330 327
303 302 302 301 301 301 301 302 302 303 303 303 303 304 304 304 304 305 305 305 307 309 310 311 311 312 313 316 322 329 332 328
302 301 301 301 300 300 300 301 301 302 303 303 304 304 305 305 305 306 306 306 306 307 309 310 310 311 311 312 313 320 326 332
306 303 303 302 301 301 301 301 302 302 302 302 303 304 305 305 306 306 307 307 308 308 309 310 310 310 311 312 312 313 316 327
304 304 306 305 304 302 301 301 301 300 302 303 302 302 303 303 304 305 305 306 307 308 309 311 312 312 312 312 312 312 313 314
302 301 301 301 300 301 301 301 300 299 300 299 299 299 300 301 302 303 303 304 304 306 308 310 311 313 314 314 313 313 313 314
299 298 298 296 296 295 296 295 294 294 294 295 296 295 296 298 298 300 300 301 301 302 307 309 309 310 311 312 313 313 314 314
297 296 294 294 294 294 294 293 294 295 294 293 292 293 294 295 296 295 296 298 299 302 304 307 309 310 311 311 310 312 315 316
296 296 296 296 295 295 294 294 294 293 291 292 292 292 293 291 292 293 295 297 298 300 302 304 306 308 310 311 311 314 315 316
294 293 294 294 293 294 293 293 292 291 290 290 291 291 290 289 290 291 293 295 297 298 299 301 303 305 306 309 310 313 316 317
290 292 293 292 292 292 291 292 292 291 291 291 290 290 290 290 290 290 291 292 293 294 295 297 299 302 302 305 308 312 313 315
289 289 291 291 291 291 292 292 293 292 291 291 292 291 290 290 290 290 290 290 290 291 292 293 293 295 297 304 310 312 315 316
288 289 290 289 290 290 291 291 292 292 293 293 293 292 292 291 291 290 290 290 290 290 290 289 290 291 295 300 307 310 314 317
287 288 288 288 288 286 284 284 285 287 291 293 293 293 293 292 292 293 292 292 292 291 289 288 288 290 292 297 301 304 310 313
287 287 286 285 284 284 283 283 284 285 285 285 286 289 292 293 293 293 292 292 291 290 290 290 290 291 293 297 299 298 299 303

GFSFLT1_850_thetae_126.txt.gz
Theta_e
316 318 317 316 317 317 317 318 319 319 319 318 318 320 321 322 324 324 325 326 328 330 331 331 331 330 330 329 330 330 334 334
313 312 312 313 313 314 314 313 314 314 314 314 313 312 312 313 313 314 314 316 321 326 326 328 329 329 329 330 329 328 325 332
307 308 308 309 309 309 310 310 309 309 309 309 309 310 310 310 310 310 311 311 311 313 315 318 323 328 329 328 327 327 325 327
304 305 304 304 304 303 302 303 305 305 305 306 305 305 306 306 307 307 308 309 310 310 310 311 313 319 324 329 329 326 325 325
303 302 301 300 300 300 300 301 301 301 302 302 303 303 303 304 304 304 304 304 305 306 308 309 310 310 313 317 326 326 326 326
301 301 304 304 305 304 302 301 301 301 301 301 302 302 303 303 304 304 304 305 305 305 305 306 307 309 310 311 315 322 327 325
307 306 306 305 306 306 304 303 302 301 301 301 302 302 303 303 303 304 304 305 305 305 306 306 306 308 309 310 310 311 314 319
309 308 308 305 305 307 307 303 303 302 301 302 302 302 302 301 301 302 304 304 305 306 306 307 307 307 309 309 310 310 311 312
305 305 303 302 301 301 302 304 303 301 301 302 301 300 301 300 298 298 300 301 304 305 305 306 308 308 308 310 311 311 311 311
303 301 300 298 298 299 299 300 300 299 299 299 298 298 297 294 295 295 294 296 298 300 302 303 306 308 309 309 309 311 312 312
300 299 297 296 297 297 297 296 297 296 296 294 294 292 291 289 290 291 292 293 295 296 297 298 302 307 309 309 308 308 310 314
297 296 295 295 295 295 295 295 295 294 294 293 292 292 293 289 288 291 291 292 294 295 295 296 297 300 305 307 308 306 307 309
295 295 294 294 294 295 295 294 295 293 293 292 292 291 288 288 288 290 291 292 292 292 292 294 295 297 298 300 304 306 307 309
294 293 293 292 294 294 294 293 293 293 292 291 290 290 290 290 290 291 291 290 290 290 291 291 292 293 295 297 299 302 306 309
292 293 292 293 293 294 293 293 293 293 293 292 291 291 291 290 290 290 289 290 290 290 290 289 290 291 292 294 298 299 304 306
289 289 289 290 292 292 292 292 293 293 293 293 292 292 292 291 291 290 290 290 289 289 289 288 288 289 289 291 296 299 303 308
289 290 290 290 291 290 287 286 286 287 290 292 292 293 292 292 292 291 292 291 291 290 289 287 287 288 289 290 293 296 300 305
289 289 289 290 289 284 284 284 285 284 284 284 285 286 286 287 289 291 293 291 291 291 291 290 289 289 289 289 291 293 295 296
288 288 288 287 285 284 284 283 283 284 284 284 284 284 284 284 284 284 284 285 288 291 292 291 290 289 291 291 291 291 291 290